Time,TemperatureF,DewpointF,PressureIn,WindDirection,WindDirectionDegrees,WindSpeedMPH,WindSpeedGustMPH,Humidity,HourlyPrecipIn,Conditions,Clouds,dailyrainin,SoftwareType,DateUTC
2014-07-28 00:00:00,71.1,58.8,29.87,North,5,0.0,0.0,65,0.00,,---,0.00,VWS V14.01,2014-07-28 05:00:00,
2014-07-28 00:01:00,71.6,58.8,29.87,North,5,0.0,1.0,64,0.00,,---,0.00,VWS V14.01,2014-07-28 05:01:00,
2014-07-28 00:02:00,70.9,58.6,29.87,North,5,0.0,0.0,65,0.00,,---,0.00,VWS V14.01,2014-07-28 05:02:00,
2014-07-28 00:03:00,70.9,58.6,29.87,North,5,0.0,0.0,65,0.00,,---,0.00,VWS V14.01,2014-07-28 05:03:00,
2014-07-28 00:04:00,70.9,58.6,29.87,North,5,0.0,0.0,65,0.00,,---,0.00,VWS V14.01,2014-07-28 05:04:00,
2014-07-28 00:05:00,70.8,58.9,29.87,NNW,347,1.0,2.0,66,0.00,,---,0.00,VWS V14.01,2014-07-28 05:05:00,
2014-07-28 00:06:00,71.3,58.9,29.87,North,5,0.0,0.0,65,0.00,,---,0.00,VWS V14.01,2014-07-28 05:06:00,
2014-07-28 00:07:00,70.8,58.9,29.87,NNW,343,0.0,1.0,66,0.00,,---,0.00,VWS V14.01,2014-07-28 05:07:00,
2014-07-28 00:08:00,70.6,58.7,29.87,West,272,0.0,1.0,66,0.00,,---,0.00,VWS V14.01,2014-07-28 05:08:00,
2014-07-28 00:09:00,70.6,58.7,29.87,West,272,0.0,1.0,66,0.00,,---,0.00,VWS V14.01,2014-07-28 05:09:00,
2014-07-28 00:10:00,70.6,58.7,29.87,West,272,0.0,1.0,66,0.00,,---,0.00,VWS V14.01,2014-07-28 05:10:00,
2014-07-28 00:11:00,70.9,58.6,29.87,North,5,0.0,0.0,65,0.00,,---,0.00,VWS V14.01,2014-07-28 05:11:00,
2014-07-28 00:12:00,70.4,58.5,29.87,NNW,337,2.0,5.0,66,0.00,,---,0.00,VWS V14.01,2014-07-28 05:12:00,
2014-07-28 00:13:00,70.4,58.5,29.87,NNW,328,3.0,5.0,66,0.00,,---,0.00,VWS V14.01,2014-07-28 05:13:00,
2014-07-28 00:14:00,70.4,58.5,29.88,NW,325,0.0,5.0,66,0.00,,---,0.00,VWS V14.01,2014-07-28 05:14:00,
2014-07-28 00:15:00,70.4,58.5,29.88,NW,325,0.0,5.0,66,0.00,,---,0.00,VWS V14.01,2014-07-28 05:15:00,
2014-07-28 00:16:00,70.8,58.9,29.87,NNW,343,0.0,1.0,66,0.00,,---,0.00,VWS V14.01,2014-07-28 05:16:00,
2014-07-28 00:17:00,70.4,58.9,29.88,NW,325,0.0,1.0,67,0.00,,---,0.00,VWS V14.01,2014-07-28 05:17:00,
2014-07-28 00:18:00,70.4,58.9,29.88,NW,325,0.0,1.0,67,0.00,,---,0.00,VWS V14.01,2014-07-28 05:18:00,
2014-07-28 00:19:00,70.4,58.9,29.88,NW,325,0.0,1.0,67,0.00,,---,0.00,VWS V14.01,2014-07-28 05:19:00,
2014-07-28 00:20:00,70.4,58.9,29.88,NNW,328,0.0,1.0,67,0.00,,---,0.00,VWS V14.01,2014-07-28 05:20:00,
2014-07-28 00:21:00,70.4,58.5,29.87,NNW,337,2.0,5.0,66,0.00,,---,0.00,VWS V14.01,2014-07-28 05:21:00,
2014-07-28 00:22:00,70.3,58.8,29.88,NE,41,0.0,0.0,67,0.00,,---,0.00,VWS V14.01,2014-07-28 05:22:00,
2014-07-28 00:23:00,70.3,58.8,29.88,NNE,19,0.0,2.0,67,0.00,,---,0.00,VWS V14.01,2014-07-28 05:23:00,
2014-07-28 00:24:00,70.3,58.8,29.88,West,274,0.0,2.0,67,0.00,,---,0.00,VWS V14.01,2014-07-28 05:24:00,
2014-07-28 00:25:00,70.3,58.8,29.88,West,274,0.0,2.0,67,0.00,,---,0.00,VWS V14.01,2014-07-28 05:25:00,
2014-07-28 00:26:00,70.4,58.9,29.88,NW,325,0.0,1.0,67,0.00,,---,0.00,VWS V14.01,2014-07-28 05:26:00,
2014-07-28 00:27:00,70.1,58.7,29.88,North,0,0.0,5.0,67,0.00,,---,0.00,VWS V14.01,2014-07-28 05:27:00,
2014-07-28 00:28:00,70.1,58.7,29.88,North,6,2.0,5.0,67,0.00,,---,0.00,VWS V14.01,2014-07-28 05:28:00,
2014-07-28 00:29:00,70.1,59.1,29.88,NNE,12,2.0,5.0,68,0.00,,---,0.00,VWS V14.01,2014-07-28 05:29:00,
2014-07-28 00:30:00,70.1,58.7,29.88,North,11,0.0,5.0,67,0.00,,---,0.00,VWS V14.01,2014-07-28 05:30:00,
2014-07-28 00:31:00,70.3,58.8,29.88,NE,41,0.0,0.0,67,0.00,,---,0.00,VWS V14.01,2014-07-28 05:31:00,
2014-07-28 00:32:00,70.1,58.7,29.88,NNW,336,0.0,3.0,67,0.00,,---,0.00,VWS V14.01,2014-07-28 05:32:00,
2014-07-28 00:33:00,70.1,58.7,29.88,North,353,1.0,7.0,67,0.00,,---,0.00,VWS V14.01,2014-07-28 05:33:00,
2014-07-28 00:34:00,70.1,58.7,29.88,NW,323,0.0,7.0,67,0.00,,---,0.00,VWS V14.01,2014-07-28 05:34:00,
2014-07-28 00:35:00,70.1,59.1,29.88,NNW,338,0.0,7.0,68,0.00,,---,0.00,VWS V14.01,2014-07-28 05:35:00,
2014-07-28 00:36:00,70.1,58.7,29.88,North,0,0.0,5.0,67,0.00,,---,0.00,VWS V14.01,2014-07-28 05:36:00,
2014-07-28 00:37:00,70.1,58.7,29.88,NNW,330,0.0,1.0,67,0.00,,---,0.00,VWS V14.01,2014-07-28 05:37:00,
2014-07-28 00:38:00,70.1,58.7,29.88,NNW,330,0.0,1.0,67,0.00,,---,0.00,VWS V14.01,2014-07-28 05:38:00,
2014-07-28 00:39:00,70.1,58.7,29.88,NNW,336,1.0,1.0,67,0.00,,---,0.00,VWS V14.01,2014-07-28 05:39:00,
2014-07-28 00:40:00,70.1,58.7,29.88,SSW,192,0.0,1.0,67,0.00,,---,0.00,VWS V14.01,2014-07-28 05:40:00,
2014-07-28 00:41:00,70.1,58.7,29.88,NNW,347,3.0,3.0,67,0.00,,---,0.00,VWS V14.01,2014-07-28 05:41:00,
2014-07-28 00:42:00,70.1,58.7,29.88,North,358,3.0,3.0,67,0.00,,---,0.00,VWS V14.01,2014-07-28 05:42:00,
2014-07-28 00:43:00,70.1,58.7,29.88,NNE,12,0.0,3.0,67,0.00,,---,0.00,VWS V14.01,2014-07-28 05:43:00,
2014-07-28 00:44:00,70.1,58.7,29.88,NNE,12,0.0,3.0,67,0.00,,---,0.00,VWS V14.01,2014-07-28 05:44:00,
2014-07-28 00:45:00,70.1,58.7,29.88,WNW,300,0.0,3.0,67,0.00,,---,0.00,VWS V14.01,2014-07-28 05:45:00,
2014-07-28 00:46:00,70.1,58.7,29.88,NNW,330,0.0,1.0,67,0.00,,---,0.00,VWS V14.01,2014-07-28 05:46:00,
2014-07-28 00:47:00,69.9,58.5,29.88,WNW,288,0.0,2.0,67,0.00,,---,0.00,VWS V14.01,2014-07-28 05:47:00,
2014-07-28 00:48:00,69.9,58.5,29.88,WNW,288,0.0,2.0,67,0.00,,---,0.00,VWS V14.01,2014-07-28 05:48:00,
2014-07-28 00:49:00,69.9,58.9,29.88,WNW,288,0.0,2.0,68,0.00,,---,0.00,VWS V14.01,2014-07-28 05:49:00,
2014-07-28 00:50:00,69.9,58.9,29.88,NW,321,0.0,2.0,68,0.00,,---,0.00,VWS V14.01,2014-07-28 05:50:00,
2014-07-28 00:51:00,70.1,58.7,29.88,North,358,3.0,3.0,67,0.00,,---,0.00,VWS V14.01,2014-07-28 05:51:00,
2014-07-28 00:52:00,69.9,58.9,29.88,North,1,0.0,1.0,68,0.00,,---,0.00,VWS V14.01,2014-07-28 05:52:00,
2014-07-28 00:53:00,69.8,58.8,29.88,NW,319,0.0,1.0,68,0.00,,---,0.00,VWS V14.01,2014-07-28 05:53:00,
2014-07-28 00:54:00,69.8,58.8,29.88,NW,319,0.0,1.0,68,0.00,,---,0.00,VWS V14.01,2014-07-28 05:54:00,
2014-07-28 00:55:00,69.8,58.8,29.88,NW,318,0.0,1.0,68,0.00,,---,0.00,VWS V14.01,2014-07-28 05:55:00,
2014-07-28 00:56:00,69.9,58.5,29.88,WNW,288,0.0,2.0,67,0.00,,---,0.00,VWS V14.01,2014-07-28 05:56:00,
2014-07-28 00:57:00,69.8,58.8,29.88,NW,318,0.0,0.0,68,0.00,,---,0.00,VWS V14.01,2014-07-28 05:57:00,
2014-07-28 00:58:00,69.8,58.8,29.88,NNW,338,3.0,3.0,68,0.00,,---,0.00,VWS V14.01,2014-07-28 05:58:00,
2014-07-28 00:59:00,69.6,58.6,29.88,NNW,343,0.0,3.0,68,0.00,,---,0.00,VWS V14.01,2014-07-28 05:59:00,
2014-07-28 01:00:00,69.6,58.6,29.88,NNW,330,3.0,3.0,68,0.00,,---,0.00,VWS V14.01,2014-07-28 06:00:00,
2014-07-28 01:01:00,69.9,58.9,29.88,North,1,0.0,1.0,68,0.00,,---,0.00,VWS V14.01,2014-07-28 06:01:00,
2014-07-28 01:02:00,69.6,58.6,29.88,North,0,3.0,3.0,68,0.00,,---,0.00,VWS V14.01,2014-07-28 06:02:00,
2014-07-28 01:03:00,69.6,58.6,29.88,WNW,297,0.0,3.0,68,0.00,,---,0.00,VWS V14.01,2014-07-28 06:03:00,
2014-07-28 01:04:00,69.6,58.6,29.88,WNW,297,1.0,3.0,68,0.00,,---,0.00,VWS V14.01,2014-07-28 06:04:00,
2014-07-28 01:05:00,69.4,58.4,29.88,NW,326,0.0,3.0,68,0.00,,---,0.00,VWS V14.01,2014-07-28 06:05:00,
2014-07-28 01:06:00,69.8,58.8,29.88,NW,318,0.0,0.0,68,0.00,,---,0.00,VWS V14.01,2014-07-28 06:06:00,
2014-07-28 01:07:00,69.4,58.4,29.88,West,281,0.0,4.0,68,0.00,,---,0.00,VWS V14.01,2014-07-28 06:07:00,
2014-07-28 01:08:00,69.4,58.4,29.88,NW,306,0.0,4.0,68,0.00,,---,0.00,VWS V14.01,2014-07-28 06:08:00,
2014-07-28 01:09:00,69.4,58.4,29.88,West,281,1.0,4.0,68,0.00,,---,0.00,VWS V14.01,2014-07-28 06:09:00,
2014-07-28 01:10:00,69.4,58.4,29.88,WNW,291,0.0,4.0,68,0.00,,---,0.00,VWS V14.01,2014-07-28 06:10:00,
2014-07-28 01:11:00,69.6,58.6,29.88,North,2,3.0,3.0,68,0.00,,---,0.00,VWS V14.01,2014-07-28 06:11:00,
2014-07-28 01:12:00,69.4,58.4,29.88,North,357,1.0,5.0,68,0.00,,---,0.00,VWS V14.01,2014-07-28 06:12:00,
2014-07-28 01:13:00,69.4,58.4,29.88,North,0,1.0,5.0,68,0.00,,---,0.00,VWS V14.01,2014-07-28 06:13:00,
2014-07-28 01:14:00,69.4,58.4,29.88,North,0,0.0,11.0,68,0.00,,---,0.00,VWS V14.01,2014-07-28 06:14:00,
2014-07-28 01:15:00,69.4,58.4,29.88,NNW,335,0.0,11.0,68,0.00,,---,0.00,VWS V14.01,2014-07-28 06:15:00,
2014-07-28 01:16:00,69.4,58.4,29.88,West,280,0.0,4.0,68,0.00,,---,0.00,VWS V14.01,2014-07-28 06:16:00,
2014-07-28 01:17:00,69.4,58.4,29.88,North,358,0.0,1.0,68,0.00,,---,0.00,VWS V14.01,2014-07-28 06:17:00,
2014-07-28 01:18:00,69.4,58.4,29.88,North,358,0.0,1.0,68,0.00,,---,0.00,VWS V14.01,2014-07-28 06:18:00,
2014-07-28 01:19:00,69.4,58.4,29.88,NW,315,0.0,1.0,68,0.00,,---,0.00,VWS V14.01,2014-07-28 06:19:00,
2014-07-28 01:20:00,69.4,58.4,29.88,NW,320,0.0,1.0,68,0.00,,---,0.00,VWS V14.01,2014-07-28 06:20:00,
2014-07-28 01:21:00,69.4,58.4,29.88,North,357,1.0,5.0,68,0.00,,---,0.00,VWS V14.01,2014-07-28 06:21:00,
2014-07-28 01:22:00,69.3,58.3,29.88,North,352,0.0,2.0,68,0.00,,---,0.00,VWS V14.01,2014-07-28 06:22:00,
2014-07-28 01:23:00,69.3,58.3,29.88,North,353,0.0,2.0,68,0.00,,---,0.00,VWS V14.01,2014-07-28 06:23:00,
2014-07-28 01:24:00,69.3,58.3,29.88,North,10,2.0,3.0,68,0.00,,---,0.00,VWS V14.01,2014-07-28 06:24:00,
2014-07-28 01:25:00,69.3,58.3,29.88,NNE,13,0.0,3.0,68,0.00,,---,0.00,VWS V14.01,2014-07-28 06:25:00,
2014-07-28 01:26:00,69.4,58.4,29.88,North,358,0.0,1.0,68,0.00,,---,0.00,VWS V14.01,2014-07-28 06:26:00,
2014-07-28 01:27:00,69.3,58.3,29.88,North,357,2.0,4.0,68,0.00,,---,0.00,VWS V14.01,2014-07-28 06:27:00,
2014-07-28 01:28:00,69.3,58.3,29.88,North,358,0.0,4.0,68,0.00,,---,0.00,VWS V14.01,2014-07-28 06:28:00,
2014-07-28 01:29:00,69.3,58.3,29.88,North,358,2.0,4.0,68,0.00,,---,0.00,VWS V14.01,2014-07-28 06:29:00,
2014-07-28 01:30:00,69.1,58.1,29.88,North,358,0.0,4.0,68,0.00,,---,0.00,VWS V14.01,2014-07-28 06:30:00,
2014-07-28 01:31:00,69.3,58.3,29.88,North,352,0.0,2.0,68,0.00,,---,0.00,VWS V14.01,2014-07-28 06:31:00,
2014-07-28 01:32:00,69.1,58.1,29.88,North,358,0.0,0.0,68,0.00,,---,0.00,VWS V14.01,2014-07-28 06:32:00,
2014-07-28 01:33:00,69.1,58.1,29.88,North,358,0.0,0.0,68,0.00,,---,0.00,VWS V14.01,2014-07-28 06:33:00,
2014-07-28 01:34:00,69.1,58.5,29.88,West,271,0.0,1.0,69,0.00,,---,0.00,VWS V14.01,2014-07-28 06:34:00,
2014-07-28 01:35:00,69.1,58.5,29.88,West,270,0.0,1.0,69,0.00,,---,0.00,VWS V14.01,2014-07-28 06:35:00,
2014-07-28 01:36:00,69.3,58.3,29.88,North,357,2.0,4.0,68,0.00,,---,0.00,VWS V14.01,2014-07-28 06:36:00,
2014-07-28 01:37:00,68.9,58.3,29.88,West,273,0.0,0.0,69,0.00,,---,0.00,VWS V14.01,2014-07-28 06:37:00,
2014-07-28 01:38:00,68.9,58.3,29.88,NNW,346,0.0,2.0,69,0.00,,---,0.00,VWS V14.01,2014-07-28 06:38:00,
2014-07-28 01:39:00,68.9,58.3,29.88,NNW,346,0.0,2.0,69,0.00,,---,0.00,VWS V14.01,2014-07-28 06:39:00,
2014-07-28 01:40:00,68.9,58.3,29.88,NNW,345,0.0,2.0,69,0.00,,---,0.00,VWS V14.01,2014-07-28 06:40:00,
2014-07-28 01:41:00,69.1,58.1,29.88,North,358,0.0,0.0,68,0.00,,---,0.00,VWS V14.01,2014-07-28 06:41:00,
2014-07-28 01:42:00,68.8,58.6,29.88,North,352,0.0,0.0,70,0.00,,---,0.00,VWS V14.01,2014-07-28 06:42:00,
2014-07-28 01:43:00,68.8,58.6,29.88,North,352,0.0,0.0,70,0.00,,---,0.00,VWS V14.01,2014-07-28 06:43:00,
2014-07-28 01:44:00,68.8,58.6,29.88,North,352,0.0,0.0,70,0.00,,---,0.00,VWS V14.01,2014-07-28 06:44:00,
2014-07-28 01:45:00,68.8,58.6,29.88,North,352,0.0,0.0,70,0.00,,---,0.00,VWS V14.01,2014-07-28 06:45:00,
2014-07-28 01:46:00,68.9,58.3,29.88,WSW,257,0.0,0.0,69,0.00,,---,0.00,VWS V14.01,2014-07-28 06:46:00,
2014-07-28 01:47:00,68.6,58.4,29.88,West,281,0.0,1.0,70,0.00,,---,0.00,VWS V14.01,2014-07-28 06:47:00,
2014-07-28 01:48:00,68.6,58.4,29.88,North,356,0.0,1.0,70,0.00,,---,0.00,VWS V14.01,2014-07-28 06:48:00,
2014-07-28 01:49:00,68.4,58.6,29.88,North,356,0.0,1.0,71,0.00,,---,0.00,VWS V14.01,2014-07-28 06:49:00,
2014-07-28 01:50:00,68.4,58.6,29.88,North,356,0.0,1.0,71,0.00,,---,0.00,VWS V14.01,2014-07-28 06:50:00,
2014-07-28 01:51:00,68.8,58.6,29.88,North,352,0.0,0.0,70,0.00,,---,0.00,VWS V14.01,2014-07-28 06:51:00,
2014-07-28 01:52:00,68.4,58.6,29.88,North,356,0.0,0.0,71,0.00,,---,0.00,VWS V14.01,2014-07-28 06:52:00,
2014-07-28 01:53:00,68.3,58.5,29.88,North,356,0.0,0.0,71,0.00,,---,0.00,VWS V14.01,2014-07-28 06:53:00,
2014-07-28 01:54:00,68.3,58.5,29.88,North,356,0.0,0.0,71,0.00,,---,0.00,VWS V14.01,2014-07-28 06:54:00,
2014-07-28 01:55:00,68.1,58.3,29.88,North,356,0.0,0.0,71,0.00,,---,0.00,VWS V14.01,2014-07-28 06:55:00,
2014-07-28 01:56:00,68.6,58.4,29.88,West,281,0.0,1.0,70,0.00,,---,0.00,VWS V14.01,2014-07-28 06:56:00,
2014-07-28 01:57:00,68.1,58.3,29.88,North,352,2.0,2.0,71,0.00,,---,0.00,VWS V14.01,2014-07-28 06:57:00,
2014-07-28 01:58:00,67.9,58.5,29.88,North,352,0.0,2.0,72,0.00,,---,0.00,VWS V14.01,2014-07-28 06:58:00,
2014-07-28 01:59:00,67.9,58.5,29.88,North,352,0.0,2.0,72,0.00,,---,0.00,VWS V14.01,2014-07-28 06:59:00,
2014-07-28 02:00:00,67.9,58.5,29.88,North,352,0.0,2.0,72,0.00,,---,0.00,VWS V14.01,2014-07-28 07:00:00,
2014-07-28 02:01:00,68.4,58.6,29.88,North,356,0.0,0.0,71,0.00,,---,0.00,VWS V14.01,2014-07-28 07:01:00,
2014-07-28 02:02:00,67.9,58.5,29.88,NNW,337,0.0,3.0,72,0.00,,---,0.00,VWS V14.01,2014-07-28 07:02:00,
2014-07-28 02:03:00,67.8,58.5,29.88,WSW,252,0.0,3.0,72,0.00,,---,0.00,VWS V14.01,2014-07-28 07:03:00,
2014-07-28 02:04:00,67.8,58.5,29.88,WSW,252,0.0,3.0,72,0.00,,---,0.00,VWS V14.01,2014-07-28 07:04:00,
2014-07-28 02:05:00,67.8,58.5,29.88,WSW,252,0.0,3.0,72,0.00,,---,0.00,VWS V14.01,2014-07-28 07:05:00,
2014-07-28 02:06:00,68.1,58.3,29.88,North,352,2.0,2.0,71,0.00,,---,0.00,VWS V14.01,2014-07-28 07:06:00,
2014-07-28 02:07:00,67.8,58.5,29.88,West,262,0.0,0.0,72,0.00,,---,0.00,VWS V14.01,2014-07-28 07:07:00,
2014-07-28 02:08:00,67.8,58.5,29.88,NNE,26,1.0,1.0,72,0.00,,---,0.00,VWS V14.01,2014-07-28 07:08:00,
2014-07-28 02:09:00,67.8,58.5,29.88,NNE,30,0.0,2.0,72,0.00,,---,0.00,VWS V14.01,2014-07-28 07:09:00,
2014-07-28 02:10:00,67.8,58.5,29.88,NNE,23,0.0,2.0,72,0.00,,---,0.00,VWS V14.01,2014-07-28 07:10:00,
2014-07-28 02:11:00,67.9,58.5,29.88,North,2,0.0,3.0,72,0.00,,---,0.00,VWS V14.01,2014-07-28 07:11:00,
2014-07-28 02:12:00,67.6,58.3,29.88,North,6,0.0,3.0,72,0.00,,---,0.00,VWS V14.01,2014-07-28 07:12:00,
2014-07-28 02:13:00,67.6,58.3,29.88,North,5,1.0,3.0,72,0.00,,---,0.00,VWS V14.01,2014-07-28 07:13:00,
2014-07-28 02:14:00,67.6,58.3,29.88,NNE,20,1.0,3.0,72,0.00,,---,0.00,VWS V14.01,2014-07-28 07:14:00,
2014-07-28 02:15:00,67.6,58.3,29.88,NNE,17,0.0,3.0,72,0.00,,---,0.00,VWS V14.01,2014-07-28 07:15:00,
2014-07-28 02:16:00,67.8,58.5,29.88,West,262,0.0,0.0,72,0.00,,---,0.00,VWS V14.01,2014-07-28 07:16:00,
2014-07-28 02:17:00,67.6,58.3,29.88,NNE,17,0.0,0.0,72,0.00,,---,0.00,VWS V14.01,2014-07-28 07:17:00,
2014-07-28 02:18:00,67.6,58.3,29.88,NNE,17,0.0,0.0,72,0.00,,---,0.00,VWS V14.01,2014-07-28 07:18:00,
2014-07-28 02:19:00,67.6,58.3,29.88,NNE,17,1.0,1.0,72,0.00,,---,0.00,VWS V14.01,2014-07-28 07:19:00,
2014-07-28 02:20:00,67.6,58.3,29.88,North,2,0.0,2.0,72,0.00,,---,0.00,VWS V14.01,2014-07-28 07:20:00,
2014-07-28 02:21:00,67.6,58.3,29.88,North,6,0.0,3.0,72,0.00,,---,0.00,VWS V14.01,2014-07-28 07:21:00,
2014-07-28 02:22:00,67.6,58.3,29.88,North,2,0.0,0.0,72,0.00,,---,0.00,VWS V14.01,2014-07-28 07:22:00,
2014-07-28 02:23:00,67.6,58.3,29.88,North,2,0.0,0.0,72,0.00,,---,0.00,VWS V14.01,2014-07-28 07:23:00,
2014-07-28 02:24:00,67.4,58.5,29.88,North,0,0.0,0.0,73,0.00,,---,0.00,VWS V14.01,2014-07-28 07:24:00,
2014-07-28 02:25:00,67.4,58.5,29.88,North,1,0.0,2.0,73,0.00,,---,0.00,VWS V14.01,2014-07-28 07:25:00,
2014-07-28 02:26:00,67.6,58.3,29.88,NNE,17,0.0,0.0,72,0.00,,---,0.00,VWS V14.01,2014-07-28 07:26:00,
2014-07-28 02:27:00,67.4,58.5,29.88,North,1,0.0,0.0,73,0.00,,---,0.00,VWS V14.01,2014-07-28 07:27:00,
2014-07-28 02:28:00,67.3,58.4,29.88,North,1,0.0,0.0,73,0.00,,---,0.00,VWS V14.01,2014-07-28 07:28:00,
2014-07-28 02:29:00,67.3,58.4,29.88,North,1,0.0,0.0,73,0.00,,---,0.00,VWS V14.01,2014-07-28 07:29:00,
2014-07-28 02:30:00,67.3,58.4,29.88,North,1,0.0,0.0,73,0.00,,---,0.00,VWS V14.01,2014-07-28 07:30:00,
2014-07-28 02:31:00,67.6,58.3,29.88,North,2,0.0,0.0,72,0.00,,---,0.00,VWS V14.01,2014-07-28 07:31:00,
2014-07-28 02:32:00,67.1,58.5,29.88,North,1,0.0,0.0,74,0.00,,---,0.00,VWS V14.01,2014-07-28 07:32:00,
2014-07-28 02:33:00,67.1,58.5,29.88,NW,322,0.0,0.0,74,0.00,,---,0.00,VWS V14.01,2014-07-28 07:33:00,
2014-07-28 02:34:00,67.1,58.5,29.88,NNW,328,0.0,1.0,74,0.00,,---,0.00,VWS V14.01,2014-07-28 07:34:00,
2014-07-28 02:35:00,67.1,58.5,29.88,NNW,328,0.0,1.0,74,0.00,,---,0.00,VWS V14.01,2014-07-28 07:35:00,
2014-07-28 02:36:00,67.4,58.5,29.88,North,1,0.0,0.0,73,0.00,,---,0.00,VWS V14.01,2014-07-28 07:36:00,
2014-07-28 02:37:00,67.1,58.5,29.88,NNW,328,0.0,0.0,74,0.00,,---,0.00,VWS V14.01,2014-07-28 07:37:00,
2014-07-28 02:38:00,66.9,58.3,29.88,NNW,328,0.0,0.0,74,0.00,,---,0.00,VWS V14.01,2014-07-28 07:38:00,
2014-07-28 02:39:00,66.9,58.3,29.88,NNW,328,0.0,0.0,74,0.00,,---,0.00,VWS V14.01,2014-07-28 07:39:00,
2014-07-28 02:40:00,66.9,58.3,29.88,NNW,328,0.0,0.0,74,0.00,,---,0.00,VWS V14.01,2014-07-28 07:40:00,
2014-07-28 02:41:00,67.1,58.5,29.88,North,1,0.0,0.0,74,0.00,,---,0.00,VWS V14.01,2014-07-28 07:41:00,
2014-07-28 02:42:00,66.9,58.3,29.88,NNW,328,0.0,0.0,74,0.00,,---,0.00,VWS V14.01,2014-07-28 07:42:00,
2014-07-28 02:43:00,66.9,58.3,29.88,North,358,2.0,3.0,74,0.00,,---,0.00,VWS V14.01,2014-07-28 07:43:00,
2014-07-28 02:44:00,66.8,58.3,29.88,North,0,0.0,3.0,74,0.00,,---,0.00,VWS V14.01,2014-07-28 07:44:00,
2014-07-28 02:45:00,66.8,58.3,29.88,North,0,0.0,3.0,74,0.00,,---,0.00,VWS V14.01,2014-07-28 07:45:00,
2014-07-28 02:46:00,67.1,58.5,29.88,NNW,328,0.0,0.0,74,0.00,,---,0.00,VWS V14.01,2014-07-28 07:46:00,
2014-07-28 02:47:00,66.8,58.3,29.88,North,358,0.0,2.0,74,0.00,,---,0.00,VWS V14.01,2014-07-28 07:47:00,
2014-07-28 02:48:00,66.8,58.3,29.88,NNE,20,0.0,2.0,74,0.00,,---,0.00,VWS V14.01,2014-07-28 07:48:00,
2014-07-28 02:49:00,66.6,58.1,29.88,NNE,20,0.0,2.0,74,0.00,,---,0.00,VWS V14.01,2014-07-28 07:49:00,
2014-07-28 02:50:00,66.6,58.1,29.88,NNE,20,0.0,2.0,74,0.00,,---,0.00,VWS V14.01,2014-07-28 07:50:00,
2014-07-28 02:51:00,66.9,58.3,29.88,NNW,328,0.0,0.0,74,0.00,,---,0.00,VWS V14.01,2014-07-28 07:51:00,
2014-07-28 02:52:00,66.6,58.4,29.88,NNE,20,0.0,0.0,75,0.00,,---,0.00,VWS V14.01,2014-07-28 07:52:00,
2014-07-28 02:53:00,66.6,58.4,29.88,NNE,20,0.0,0.0,75,0.00,,---,0.00,VWS V14.01,2014-07-28 07:53:00,
2014-07-28 02:54:00,66.6,58.4,29.88,NNE,20,0.0,0.0,75,0.00,,---,0.00,VWS V14.01,2014-07-28 07:54:00,
2014-07-28 02:55:00,66.6,58.1,29.88,NNE,20,0.0,0.0,74,0.00,,---,0.00,VWS V14.01,2014-07-28 07:55:00,
2014-07-28 02:56:00,66.8,58.3,29.88,North,358,1.0,2.0,74,0.00,,---,0.00,VWS V14.01,2014-07-28 07:56:00,
2014-07-28 02:57:00,66.6,58.4,29.88,NNW,345,0.0,4.0,75,0.00,,---,0.00,VWS V14.01,2014-07-28 07:57:00,
2014-07-28 02:58:00,66.4,58.2,29.88,NNW,345,0.0,4.0,75,0.00,,---,0.00,VWS V14.01,2014-07-28 07:58:00,
2014-07-28 02:59:00,66.4,58.2,29.88,NNW,346,0.0,4.0,75,0.00,,---,0.00,VWS V14.01,2014-07-28 07:59:00,
2014-07-28 03:00:00,66.4,58.2,29.88,NW,318,0.0,4.0,75,0.00,,---,0.00,VWS V14.01,2014-07-28 08:00:00,
2014-07-28 03:01:00,66.6,58.4,29.88,NNE,20,0.0,0.0,75,0.00,,---,0.00,VWS V14.01,2014-07-28 08:01:00,
2014-07-28 03:02:00,66.4,58.2,29.88,NNW,333,0.0,1.0,75,0.00,,---,0.00,VWS V14.01,2014-07-28 08:02:00,
2014-07-28 03:03:00,66.4,58.2,29.88,NNW,333,0.0,1.0,75,0.00,,---,0.00,VWS V14.01,2014-07-28 08:03:00,
2014-07-28 03:04:00,66.4,58.2,29.88,NNW,333,0.0,1.0,75,0.00,,---,0.00,VWS V14.01,2014-07-28 08:04:00,
2014-07-28 03:05:00,66.4,58.2,29.88,NNW,333,0.0,1.0,75,0.00,,---,0.00,VWS V14.01,2014-07-28 08:05:00,
2014-07-28 03:06:00,66.6,58.4,29.88,NNW,345,0.0,4.0,75,0.00,,---,0.00,VWS V14.01,2014-07-28 08:06:00,
2014-07-28 03:07:00,66.4,58.2,29.88,NNW,333,0.0,1.0,75,0.00,,---,0.00,VWS V14.01,2014-07-28 08:07:00,
2014-07-28 03:08:00,66.4,58.2,29.88,NNW,333,0.0,1.0,75,0.00,,---,0.00,VWS V14.01,2014-07-28 08:08:00,
2014-07-28 03:09:00,66.4,58.2,29.88,NNW,333,0.0,1.0,75,0.00,,---,0.00,VWS V14.01,2014-07-28 08:09:00,
2014-07-28 03:10:00,66.4,58.2,29.88,NNW,333,0.0,1.0,75,0.00,,---,0.00,VWS V14.01,2014-07-28 08:10:00,
2014-07-28 03:11:00,66.4,58.2,29.88,NNW,333,0.0,1.0,75,0.00,,---,0.00,VWS V14.01,2014-07-28 08:11:00,
2014-07-28 03:12:00,66.3,58.2,29.88,NNW,333,0.0,0.0,75,0.00,,---,0.00,VWS V14.01,2014-07-28 08:12:00,
2014-07-28 03:13:00,66.3,58.2,29.88,NNW,333,0.0,0.0,75,0.00,,---,0.00,VWS V14.01,2014-07-28 08:13:00,
2014-07-28 03:14:00,66.3,58.5,29.88,NNW,333,0.0,0.0,76,0.00,,---,0.00,VWS V14.01,2014-07-28 08:14:00,
2014-07-28 03:15:00,66.3,58.5,29.89,NNW,333,0.0,0.0,76,0.00,,---,0.00,VWS V14.01,2014-07-28 08:15:00,
2014-07-28 03:16:00,66.4,58.2,29.88,NNW,333,0.0,1.0,75,0.00,,---,0.00,VWS V14.01,2014-07-28 08:16:00,
2014-07-28 03:17:00,66.1,58.3,29.89,NNW,333,0.0,0.0,76,0.00,,---,0.00,VWS V14.01,2014-07-28 08:17:00,
2014-07-28 03:18:00,66.1,58.3,29.89,NNW,333,0.0,0.0,76,0.00,,---,0.00,VWS V14.01,2014-07-28 08:18:00,
2014-07-28 03:19:00,66.1,58.3,29.89,NNW,333,0.0,0.0,76,0.00,,---,0.00,VWS V14.01,2014-07-28 08:19:00,
2014-07-28 03:20:00,66.1,58.3,29.89,NNW,333,0.0,0.0,76,0.00,,---,0.00,VWS V14.01,2014-07-28 08:20:00,
2014-07-28 03:21:00,66.3,58.2,29.88,NNW,333,0.0,0.0,75,0.00,,---,0.00,VWS V14.01,2014-07-28 08:21:00,
2014-07-28 03:22:00,66.0,58.2,29.89,NNW,333,0.0,0.0,76,0.00,,---,0.00,VWS V14.01,2014-07-28 08:22:00,
2014-07-28 03:23:00,66.0,58.2,29.89,NNW,333,0.0,0.0,76,0.00,,---,0.00,VWS V14.01,2014-07-28 08:23:00,
2014-07-28 03:24:00,66.0,58.2,29.89,NNW,333,0.0,0.0,76,0.00,,---,0.00,VWS V14.01,2014-07-28 08:24:00,
2014-07-28 03:25:00,66.0,58.6,29.89,NNW,333,0.0,0.0,77,0.00,,---,0.00,VWS V14.01,2014-07-28 08:25:00,
2014-07-28 03:26:00,66.1,58.3,29.89,NNW,333,0.0,0.0,76,0.00,,---,0.00,VWS V14.01,2014-07-28 08:26:00,
2014-07-28 03:27:00,65.8,58.4,29.89,NNW,333,0.0,0.0,77,0.00,,---,0.00,VWS V14.01,2014-07-28 08:27:00,
2014-07-28 03:28:00,65.8,58.4,29.89,NNW,333,0.0,0.0,77,0.00,,---,0.00,VWS V14.01,2014-07-28 08:28:00,
2014-07-28 03:29:00,65.6,58.2,29.89,NNW,333,0.0,0.0,77,0.00,,---,0.00,VWS V14.01,2014-07-28 08:29:00,
2014-07-28 03:30:00,65.6,58.2,29.89,NNW,333,0.0,0.0,77,0.00,,---,0.00,VWS V14.01,2014-07-28 08:30:00,
2014-07-28 03:31:00,66.0,58.2,29.89,NNW,333,0.0,0.0,76,0.00,,---,0.00,VWS V14.01,2014-07-28 08:31:00,
2014-07-28 03:32:00,65.6,58.2,29.89,NNW,333,0.0,0.0,77,0.00,,---,0.00,VWS V14.01,2014-07-28 08:32:00,
2014-07-28 03:33:00,65.5,58.5,29.89,NNW,333,0.0,0.0,78,0.00,,---,0.00,VWS V14.01,2014-07-28 08:33:00,
2014-07-28 03:34:00,65.5,58.5,29.89,NNW,333,0.0,0.0,78,0.00,,---,0.00,VWS V14.01,2014-07-28 08:34:00,
2014-07-28 03:35:00,65.5,58.5,29.89,NNW,333,0.0,0.0,78,0.00,,---,0.00,VWS V14.01,2014-07-28 08:35:00,
2014-07-28 03:36:00,65.8,58.4,29.89,NNW,333,0.0,0.0,77,0.00,,---,0.00,VWS V14.01,2014-07-28 08:36:00,
2014-07-28 03:37:00,65.3,58.3,29.89,NNW,333,0.0,0.0,78,0.00,,---,0.00,VWS V14.01,2014-07-28 08:37:00,
2014-07-28 03:38:00,65.3,58.3,29.89,NNW,333,0.0,0.0,78,0.00,,---,0.00,VWS V14.01,2014-07-28 08:38:00,
2014-07-28 03:39:00,65.2,58.2,29.89,NNW,333,0.0,0.0,78,0.00,,---,0.00,VWS V14.01,2014-07-28 08:39:00,
2014-07-28 03:40:00,65.2,58.2,29.89,NNW,333,0.0,0.0,78,0.00,,---,0.00,VWS V14.01,2014-07-28 08:40:00,
2014-07-28 03:41:00,65.6,58.2,29.89,NNW,333,0.0,0.0,77,0.00,,---,0.00,VWS V14.01,2014-07-28 08:41:00,
2014-07-28 03:42:00,65.2,58.2,29.89,NNW,333,0.0,1.0,78,0.00,,---,0.00,VWS V14.01,2014-07-28 08:42:00,
2014-07-28 03:43:00,65.0,58.3,29.89,NNW,333,0.0,1.0,79,0.00,,---,0.00,VWS V14.01,2014-07-28 08:43:00,
2014-07-28 03:44:00,65.0,58.3,29.89,NNW,333,0.0,1.0,79,0.00,,---,0.00,VWS V14.01,2014-07-28 08:44:00,
2014-07-28 03:45:00,65.0,58.3,29.90,NNW,333,0.0,1.0,79,0.00,,---,0.00,VWS V14.01,2014-07-28 08:45:00,
2014-07-28 03:46:00,65.3,58.3,29.89,NNW,333,0.0,0.0,78,0.00,,---,0.00,VWS V14.01,2014-07-28 08:46:00,
2014-07-28 03:47:00,64.8,58.1,29.90,NNW,333,0.0,1.0,79,0.00,,---,0.00,VWS V14.01,2014-07-28 08:47:00,
2014-07-28 03:48:00,64.8,58.1,29.90,NNW,333,0.0,1.0,79,0.00,,---,0.00,VWS V14.01,2014-07-28 08:48:00,
2014-07-28 03:49:00,64.8,58.1,29.90,NNW,333,0.0,1.0,79,0.00,,---,0.00,VWS V14.01,2014-07-28 08:49:00,
2014-07-28 03:50:00,64.8,58.1,29.90,NNW,333,0.0,1.0,79,0.00,,---,0.00,VWS V14.01,2014-07-28 08:50:00,
2014-07-28 03:51:00,65.2,58.2,29.89,NNW,333,0.0,1.0,78,0.00,,---,0.00,VWS V14.01,2014-07-28 08:51:00,
2014-07-28 03:52:00,64.7,58.4,29.90,NNW,333,0.0,0.0,80,0.00,,---,0.00,VWS V14.01,2014-07-28 08:52:00,
2014-07-28 03:53:00,64.7,58.4,29.90,NNW,333,0.0,0.0,80,0.00,,---,0.00,VWS V14.01,2014-07-28 08:53:00,
2014-07-28 03:54:00,64.7,58.4,29.90,NNW,333,0.0,0.0,80,0.00,,---,0.00,VWS V14.01,2014-07-28 08:54:00,
2014-07-28 03:55:00,64.7,58.4,29.90,NNW,333,2.0,2.0,80,0.00,,---,0.00,VWS V14.01,2014-07-28 08:55:00,
2014-07-28 03:56:00,64.8,58.1,29.90,NNW,333,0.0,1.0,79,0.00,,---,0.00,VWS V14.01,2014-07-28 08:56:00,
2014-07-28 03:57:00,64.7,58.4,29.90,NNW,333,0.0,2.0,80,0.00,,---,0.00,VWS V14.01,2014-07-28 08:57:00,
2014-07-28 03:58:00,64.7,58.4,29.90,NNW,333,0.0,2.0,80,0.00,,---,0.00,VWS V14.01,2014-07-28 08:58:00,
2014-07-28 03:59:00,64.7,58.4,29.90,NNW,333,0.0,2.0,80,0.00,,---,0.00,VWS V14.01,2014-07-28 08:59:00,
2014-07-28 04:00:00,64.7,58.4,29.90,NNW,333,0.0,2.0,80,0.00,,---,0.00,VWS V14.01,2014-07-28 09:00:00,
2014-07-28 04:01:00,64.7,58.4,29.90,NNW,333,0.0,0.0,80,0.00,,---,0.00,VWS V14.01,2014-07-28 09:01:00,
2014-07-28 04:02:00,64.7,58.4,29.90,NNW,333,0.0,0.0,80,0.00,,---,0.00,VWS V14.01,2014-07-28 09:02:00,
2014-07-28 04:03:00,64.7,58.4,29.90,NNW,333,0.0,0.0,80,0.00,,---,0.00,VWS V14.01,2014-07-28 09:03:00,
2014-07-28 04:04:00,64.7,58.4,29.90,NNW,333,0.0,0.0,80,0.00,,---,0.00,VWS V14.01,2014-07-28 09:04:00,
2014-07-28 04:05:00,64.7,58.4,29.90,NNW,333,0.0,0.0,80,0.00,,---,0.00,VWS V14.01,2014-07-28 09:05:00,
2014-07-28 04:06:00,64.7,58.4,29.90,NNW,333,0.0,2.0,80,0.00,,---,0.00,VWS V14.01,2014-07-28 09:06:00,
2014-07-28 04:07:00,64.7,58.4,29.90,NNW,333,0.0,0.0,80,0.00,,---,0.00,VWS V14.01,2014-07-28 09:07:00,
2014-07-28 04:08:00,64.5,58.2,29.90,NNW,333,0.0,0.0,80,0.00,,---,0.00,VWS V14.01,2014-07-28 09:08:00,
2014-07-28 04:09:00,64.5,58.2,29.90,NNW,333,0.0,0.0,80,0.00,,---,0.00,VWS V14.01,2014-07-28 09:09:00,
2014-07-28 04:10:00,64.5,58.2,29.90,NNW,333,0.0,0.0,80,0.00,,---,0.00,VWS V14.01,2014-07-28 09:10:00,
2014-07-28 04:11:00,64.7,58.4,29.90,NNW,333,0.0,0.0,80,0.00,,---,0.00,VWS V14.01,2014-07-28 09:11:00,
2014-07-28 04:12:00,64.3,58.0,29.90,NNW,333,0.0,0.0,80,0.00,,---,0.00,VWS V14.01,2014-07-28 09:12:00,
2014-07-28 04:13:00,64.3,58.0,29.90,NNW,333,0.0,0.0,80,0.00,,---,0.00,VWS V14.01,2014-07-28 09:13:00,
2014-07-28 04:14:00,64.2,57.9,29.90,NNW,333,0.0,0.0,80,0.00,,---,0.00,VWS V14.01,2014-07-28 09:14:00,
2014-07-28 04:15:00,64.2,57.9,29.90,NNW,333,0.0,0.0,80,0.00,,---,0.00,VWS V14.01,2014-07-28 09:15:00,
2014-07-28 04:16:00,64.7,58.4,29.90,NNW,333,0.0,0.0,80,0.00,,---,0.00,VWS V14.01,2014-07-28 09:16:00,
2014-07-28 04:17:00,64.0,58.1,29.90,NNW,333,0.0,0.0,81,0.00,,---,0.00,VWS V14.01,2014-07-28 09:17:00,
2014-07-28 04:18:00,64.0,58.1,29.90,NNW,333,0.0,0.0,81,0.00,,---,0.00,VWS V14.01,2014-07-28 09:18:00,
2014-07-28 04:19:00,64.0,58.1,29.90,NNW,333,0.0,0.0,81,0.00,,---,0.00,VWS V14.01,2014-07-28 09:19:00,
2014-07-28 04:20:00,63.9,58.0,29.90,NNW,333,0.0,0.0,81,0.00,,---,0.00,VWS V14.01,2014-07-28 09:20:00,
2014-07-28 04:21:00,64.3,58.0,29.90,NNW,333,0.0,0.0,80,0.00,,---,0.00,VWS V14.01,2014-07-28 09:21:00,
2014-07-28 04:22:00,63.9,58.0,29.90,NNW,333,0.0,0.0,81,0.00,,---,0.00,VWS V14.01,2014-07-28 09:22:00,
2014-07-28 04:23:00,63.9,58.0,29.90,NNW,333,0.0,0.0,81,0.00,,---,0.00,VWS V14.01,2014-07-28 09:23:00,
2014-07-28 04:24:00,63.9,58.0,29.90,NNW,333,0.0,0.0,81,0.00,,---,0.00,VWS V14.01,2014-07-28 09:24:00,
2014-07-28 04:25:00,63.7,57.8,29.90,NNW,333,0.0,0.0,81,0.00,,---,0.00,VWS V14.01,2014-07-28 09:25:00,
2014-07-28 04:26:00,64.0,57.7,29.90,NNW,333,0.0,0.0,80,0.00,,---,0.00,VWS V14.01,2014-07-28 09:26:00,
2014-07-28 04:27:00,63.7,58.1,29.90,NNW,333,0.0,0.0,82,0.00,,---,0.00,VWS V14.01,2014-07-28 09:27:00,
2014-07-28 04:28:00,63.7,58.1,29.90,NNW,333,0.0,0.0,82,0.00,,---,0.00,VWS V14.01,2014-07-28 09:28:00,
2014-07-28 04:29:00,63.7,58.1,29.90,NNW,333,0.0,0.0,82,0.00,,---,0.00,VWS V14.01,2014-07-28 09:29:00,
2014-07-28 04:30:00,63.7,58.1,29.90,NNW,333,0.0,0.0,82,0.00,,---,0.00,VWS V14.01,2014-07-28 09:30:00,
2014-07-28 04:31:00,63.9,58.0,29.90,NNW,333,0.0,0.0,81,0.00,,---,0.00,VWS V14.01,2014-07-28 09:31:00,
2014-07-28 04:32:00,63.5,57.9,29.90,NNW,333,0.0,0.0,82,0.00,,---,0.00,VWS V14.01,2014-07-28 09:32:00,
2014-07-28 04:33:00,63.5,57.9,29.90,NNW,333,0.0,0.0,82,0.00,,---,0.00,VWS V14.01,2014-07-28 09:33:00,
2014-07-28 04:34:00,63.5,57.9,29.90,NNW,333,0.0,0.0,82,0.00,,---,0.00,VWS V14.01,2014-07-28 09:34:00,
2014-07-28 04:35:00,63.5,57.9,29.90,NNW,333,0.0,0.0,82,0.00,,---,0.00,VWS V14.01,2014-07-28 09:35:00,
2014-07-28 04:36:00,63.7,58.1,29.90,NNW,333,0.0,0.0,82,0.00,,---,0.00,VWS V14.01,2014-07-28 09:36:00,
2014-07-28 04:37:00,63.5,58.2,29.90,NNW,333,0.0,0.0,83,0.00,,---,0.00,VWS V14.01,2014-07-28 09:37:00,
2014-07-28 04:38:00,63.4,58.2,29.90,NNW,333,0.0,0.0,83,0.00,,---,0.00,VWS V14.01,2014-07-28 09:38:00,
2014-07-28 04:39:00,63.4,58.2,29.90,NNW,333,0.0,0.0,83,0.00,,---,0.00,VWS V14.01,2014-07-28 09:39:00,
2014-07-28 04:40:00,63.4,58.2,29.90,NNW,333,0.0,0.0,83,0.00,,---,0.00,VWS V14.01,2014-07-28 09:40:00,
2014-07-28 04:41:00,63.5,57.9,29.90,NNW,333,0.0,0.0,82,0.00,,---,0.00,VWS V14.01,2014-07-28 09:41:00,
2014-07-28 04:42:00,63.4,58.2,29.90,NNW,333,0.0,0.0,83,0.00,,---,0.00,VWS V14.01,2014-07-28 09:42:00,
2014-07-28 04:43:00,63.4,58.2,29.90,NNW,333,0.0,0.0,83,0.00,,---,0.00,VWS V14.01,2014-07-28 09:43:00,
2014-07-28 04:44:00,63.4,58.2,29.90,NNW,333,0.0,0.0,83,0.00,,---,0.00,VWS V14.01,2014-07-28 09:44:00,
2014-07-28 04:45:00,63.4,58.2,29.91,NNW,333,0.0,0.0,83,0.00,,---,0.00,VWS V14.01,2014-07-28 09:45:00,
2014-07-28 04:46:00,63.5,58.2,29.90,NNW,333,0.0,0.0,83,0.00,,---,0.00,VWS V14.01,2014-07-28 09:46:00,
2014-07-28 04:47:00,63.2,58.0,29.91,NNW,333,0.0,0.0,83,0.00,,---,0.00,VWS V14.01,2014-07-28 09:47:00,
2014-07-28 04:48:00,63.4,58.2,29.91,NNW,333,0.0,0.0,83,0.00,,---,0.00,VWS V14.01,2014-07-28 09:48:00,
2014-07-28 04:49:00,63.4,58.2,29.91,NNW,333,0.0,0.0,83,0.00,,---,0.00,VWS V14.01,2014-07-28 09:49:00,
2014-07-28 04:50:00,63.4,58.2,29.91,NNW,333,0.0,0.0,83,0.00,,---,0.00,VWS V14.01,2014-07-28 09:50:00,
2014-07-28 04:51:00,63.4,58.2,29.90,NNW,333,0.0,0.0,83,0.00,,---,0.00,VWS V14.01,2014-07-28 09:51:00,
2014-07-28 04:52:00,63.2,58.0,29.91,NNW,333,0.0,0.0,83,0.00,,---,0.00,VWS V14.01,2014-07-28 09:52:00,
2014-07-28 04:53:00,63.2,58.0,29.91,NNW,333,0.0,0.0,83,0.00,,---,0.00,VWS V14.01,2014-07-28 09:53:00,
2014-07-28 04:54:00,63.2,58.0,29.91,NNW,333,0.0,0.0,83,0.00,,---,0.00,VWS V14.01,2014-07-28 09:54:00,
2014-07-28 04:55:00,63.2,58.0,29.91,NNW,333,0.0,0.0,83,0.00,,---,0.00,VWS V14.01,2014-07-28 09:55:00,
2014-07-28 04:56:00,63.2,58.0,29.91,NNW,333,0.0,0.0,83,0.00,,---,0.00,VWS V14.01,2014-07-28 09:56:00,
2014-07-28 04:57:00,63.2,58.0,29.91,NNW,333,0.0,0.0,83,0.00,,---,0.00,VWS V14.01,2014-07-28 09:57:00,
2014-07-28 04:58:00,63.2,58.0,29.91,NNW,333,0.0,0.0,83,0.00,,---,0.00,VWS V14.01,2014-07-28 09:58:00,
2014-07-28 04:59:00,63.2,58.0,29.91,NNW,333,0.0,0.0,83,0.00,,---,0.00,VWS V14.01,2014-07-28 09:59:00,
2014-07-28 05:00:00,63.2,58.3,29.91,NNW,333,0.0,0.0,84,0.00,,---,0.00,VWS V14.01,2014-07-28 10:00:00,
2014-07-28 05:01:00,63.2,58.0,29.91,NNW,333,0.0,0.0,83,0.00,,---,0.00,VWS V14.01,2014-07-28 10:01:00,
2014-07-28 05:02:00,63.2,58.3,29.91,NNW,333,0.0,0.0,84,0.00,,---,0.00,VWS V14.01,2014-07-28 10:02:00,
2014-07-28 05:03:00,63.2,58.3,29.91,NNW,333,0.0,0.0,84,0.00,,---,0.00,VWS V14.01,2014-07-28 10:03:00,
2014-07-28 05:04:00,63.2,58.3,29.91,NNW,333,0.0,0.0,84,0.00,,---,0.00,VWS V14.01,2014-07-28 10:04:00,
2014-07-28 05:05:00,63.2,58.3,29.91,NNW,333,0.0,0.0,84,0.00,,---,0.00,VWS V14.01,2014-07-28 10:05:00,
2014-07-28 05:06:00,63.2,58.0,29.91,NNW,333,0.0,0.0,83,0.00,,---,0.00,VWS V14.01,2014-07-28 10:06:00,
2014-07-28 05:07:00,63.2,58.3,29.91,NNW,333,0.0,0.0,84,0.00,,---,0.00,VWS V14.01,2014-07-28 10:07:00,
2014-07-28 05:08:00,63.4,58.5,29.91,NNW,333,0.0,0.0,84,0.00,,---,0.00,VWS V14.01,2014-07-28 10:08:00,
2014-07-28 05:09:00,63.4,58.5,29.91,NNW,333,0.0,0.0,84,0.00,,---,0.00,VWS V14.01,2014-07-28 10:09:00,
2014-07-28 05:10:00,63.4,58.5,29.91,NNW,333,0.0,0.0,84,0.00,,---,0.00,VWS V14.01,2014-07-28 10:10:00,
2014-07-28 05:11:00,63.2,58.3,29.91,NNW,333,0.0,0.0,84,0.00,,---,0.00,VWS V14.01,2014-07-28 10:11:00,
2014-07-28 05:12:00,63.4,58.5,29.91,NNW,333,0.0,0.0,84,0.00,,---,0.00,VWS V14.01,2014-07-28 10:12:00,
2014-07-28 05:13:00,63.4,58.2,29.91,NNW,333,0.0,0.0,83,0.00,,---,0.00,VWS V14.01,2014-07-28 10:13:00,
2014-07-28 05:14:00,63.5,58.6,29.91,NNW,333,0.0,0.0,84,0.00,,---,0.00,VWS V14.01,2014-07-28 10:14:00,
2014-07-28 05:15:00,63.5,58.6,29.92,NNW,333,0.0,0.0,84,0.00,,---,0.00,VWS V14.01,2014-07-28 10:15:00,
2014-07-28 05:16:00,63.2,58.3,29.91,NNW,333,0.0,0.0,84,0.00,,---,0.00,VWS V14.01,2014-07-28 10:16:00,
2014-07-28 05:17:00,63.5,58.2,29.92,WNW,294,0.0,0.0,83,0.00,,---,0.00,VWS V14.01,2014-07-28 10:17:00,
2014-07-28 05:18:00,63.5,58.2,29.92,WNW,294,0.0,0.0,83,0.00,,---,0.00,VWS V14.01,2014-07-28 10:18:00,
2014-07-28 05:19:00,63.7,58.5,29.92,WNW,294,0.0,0.0,83,0.00,,---,0.00,VWS V14.01,2014-07-28 10:19:00,
2014-07-28 05:20:00,63.7,58.5,29.92,NNW,334,1.0,1.0,83,0.00,,---,0.00,VWS V14.01,2014-07-28 10:20:00,
2014-07-28 05:21:00,63.4,58.5,29.91,NNW,333,0.0,0.0,84,0.00,,---,0.00,VWS V14.01,2014-07-28 10:21:00,
2014-07-28 05:22:00,63.7,58.5,29.92,WSW,245,0.0,3.0,83,0.00,,---,0.00,VWS V14.01,2014-07-28 10:22:00,
2014-07-28 05:23:00,63.9,58.6,29.92,WSW,255,0.0,3.0,83,0.00,,---,0.00,VWS V14.01,2014-07-28 10:23:00,
2014-07-28 05:24:00,63.9,58.6,29.92,WSW,254,0.0,3.0,83,0.00,,---,0.00,VWS V14.01,2014-07-28 10:24:00,
2014-07-28 05:25:00,63.9,58.6,29.92,WSW,255,0.0,3.0,83,0.00,,---,0.00,VWS V14.01,2014-07-28 10:25:00,
2014-07-28 05:26:00,63.5,58.2,29.92,NNW,333,0.0,0.0,83,0.00,,---,0.00,VWS V14.01,2014-07-28 10:26:00,
2014-07-28 05:27:00,63.9,58.6,29.92,WSW,254,0.0,0.0,83,0.00,,---,0.00,VWS V14.01,2014-07-28 10:27:00,
2014-07-28 05:28:00,63.9,58.6,29.92,WSW,254,0.0,0.0,83,0.00,,---,0.00,VWS V14.01,2014-07-28 10:28:00,
2014-07-28 05:29:00,63.9,58.6,29.92,WSW,254,0.0,0.0,83,0.00,,---,0.00,VWS V14.01,2014-07-28 10:29:00,
2014-07-28 05:30:00,63.9,58.6,29.92,WSW,254,0.0,0.0,83,0.00,,---,0.00,VWS V14.01,2014-07-28 10:30:00,
2014-07-28 05:31:00,63.7,58.5,29.92,WSW,245,0.0,3.0,83,0.00,,---,0.00,VWS V14.01,2014-07-28 10:31:00,
2014-07-28 05:32:00,63.9,58.6,29.92,West,259,1.0,1.0,83,0.00,,---,0.00,VWS V14.01,2014-07-28 10:32:00,
2014-07-28 05:33:00,63.9,58.6,29.92,North,2,1.0,1.0,83,0.00,,---,0.00,VWS V14.01,2014-07-28 10:33:00,
2014-07-28 05:34:00,63.9,58.6,29.92,NNE,25,0.0,1.0,83,0.00,,---,0.00,VWS V14.01,2014-07-28 10:34:00,
2014-07-28 05:35:00,63.9,58.6,29.92,NNE,25,0.0,1.0,83,0.00,,---,0.00,VWS V14.01,2014-07-28 10:35:00,
2014-07-28 05:36:00,63.9,58.6,29.92,WSW,254,0.0,0.0,83,0.00,,---,0.00,VWS V14.01,2014-07-28 10:36:00,
2014-07-28 05:37:00,63.9,58.6,29.92,North,4,0.0,0.0,83,0.00,,---,0.00,VWS V14.01,2014-07-28 10:37:00,
2014-07-28 05:38:00,64.0,58.7,29.92,WSW,239,0.0,0.0,83,0.00,,---,0.00,VWS V14.01,2014-07-28 10:38:00,
2014-07-28 05:39:00,64.0,58.7,29.92,WNW,291,3.0,3.0,83,0.00,,---,0.00,VWS V14.01,2014-07-28 10:39:00,
2014-07-28 05:40:00,64.0,58.7,29.92,WNW,295,0.0,3.0,83,0.00,,---,0.00,VWS V14.01,2014-07-28 10:40:00,
2014-07-28 05:41:00,63.9,58.6,29.92,West,261,1.0,1.0,83,0.00,,---,0.00,VWS V14.01,2014-07-28 10:41:00,
2014-07-28 05:42:00,64.0,58.7,29.92,WNW,293,0.0,0.0,83,0.00,,---,0.00,VWS V14.01,2014-07-28 10:42:00,
2014-07-28 05:43:00,64.0,58.7,29.92,WNW,293,0.0,0.0,83,0.00,,---,0.00,VWS V14.01,2014-07-28 10:43:00,
2014-07-28 05:44:00,64.0,58.7,29.92,WNW,293,0.0,0.0,83,0.00,,---,0.00,VWS V14.01,2014-07-28 10:44:00,
2014-07-28 05:45:00,64.0,58.7,29.93,WNW,293,0.0,0.0,83,0.00,,---,0.00,VWS V14.01,2014-07-28 10:45:00,
2014-07-28 05:46:00,63.9,58.6,29.92,North,4,0.0,0.0,83,0.00,,---,0.00,VWS V14.01,2014-07-28 10:46:00,
2014-07-28 05:47:00,64.0,58.7,29.93,NW,307,0.0,0.0,83,0.00,,---,0.00,VWS V14.01,2014-07-28 10:47:00,
2014-07-28 05:48:00,64.0,58.7,29.93,NW,309,0.0,0.0,83,0.00,,---,0.00,VWS V14.01,2014-07-28 10:48:00,
2014-07-28 05:49:00,64.0,58.7,29.93,NW,309,0.0,0.0,83,0.00,,---,0.00,VWS V14.01,2014-07-28 10:49:00,
2014-07-28 05:50:00,64.0,58.7,29.93,NW,309,0.0,0.0,83,0.00,,---,0.00,VWS V14.01,2014-07-28 10:50:00,
2014-07-28 05:51:00,64.0,58.7,29.92,WNW,293,0.0,0.0,83,0.00,,---,0.00,VWS V14.01,2014-07-28 10:51:00,
2014-07-28 05:52:00,64.0,58.7,29.93,West,278,0.0,0.0,83,0.00,,---,0.00,VWS V14.01,2014-07-28 10:52:00,
2014-07-28 05:53:00,64.0,58.7,29.93,West,278,0.0,0.0,83,0.00,,---,0.00,VWS V14.01,2014-07-28 10:53:00,
2014-07-28 05:54:00,64.0,58.7,29.93,West,278,0.0,0.0,83,0.00,,---,0.00,VWS V14.01,2014-07-28 10:54:00,
2014-07-28 05:55:00,64.0,58.7,29.93,WSW,258,0.0,1.0,83,0.00,,---,0.00,VWS V14.01,2014-07-28 10:55:00,
2014-07-28 05:56:00,64.0,58.7,29.93,NW,304,0.0,0.0,83,0.00,,---,0.00,VWS V14.01,2014-07-28 10:56:00,
2014-07-28 05:57:00,64.0,58.7,29.93,WSW,258,0.0,0.0,83,0.00,,---,0.00,VWS V14.01,2014-07-28 10:57:00,
2014-07-28 05:58:00,64.0,58.7,29.93,WSW,258,0.0,0.0,83,0.00,,---,0.00,VWS V14.01,2014-07-28 10:58:00,
2014-07-28 05:59:00,64.0,58.7,29.93,WSW,258,0.0,0.0,83,0.00,,---,0.00,VWS V14.01,2014-07-28 10:59:00,
2014-07-28 06:00:00,64.0,58.7,29.93,WSW,258,0.0,0.0,83,0.00,,---,0.00,VWS V14.01,2014-07-28 11:00:00,
2014-07-28 06:01:00,64.0,58.7,29.93,West,278,0.0,0.0,83,0.00,,---,0.00,VWS V14.01,2014-07-28 11:01:00,
2014-07-28 06:02:00,63.9,58.6,29.93,WSW,258,0.0,0.0,83,0.00,,---,0.00,VWS V14.01,2014-07-28 11:02:00,
2014-07-28 06:03:00,63.9,58.6,29.93,WSW,258,0.0,0.0,83,0.00,,---,0.00,VWS V14.01,2014-07-28 11:03:00,
2014-07-28 06:04:00,63.9,58.6,29.93,WSW,258,0.0,0.0,83,0.00,,---,0.00,VWS V14.01,2014-07-28 11:04:00,
2014-07-28 06:05:00,63.9,58.6,29.93,WSW,258,0.0,0.0,83,0.00,,---,0.00,VWS V14.01,2014-07-28 11:05:00,
2014-07-28 06:06:00,64.0,58.7,29.93,WSW,258,0.0,0.0,83,0.00,,---,0.00,VWS V14.01,2014-07-28 11:06:00,
2014-07-28 06:07:00,63.9,59.0,29.93,WSW,258,0.0,0.0,84,0.00,,---,0.00,VWS V14.01,2014-07-28 11:07:00,
2014-07-28 06:08:00,63.7,58.8,29.93,WSW,258,0.0,0.0,84,0.00,,---,0.00,VWS V14.01,2014-07-28 11:08:00,
2014-07-28 06:09:00,63.7,58.8,29.93,WSW,258,0.0,0.0,84,0.00,,---,0.00,VWS V14.01,2014-07-28 11:09:00,
2014-07-28 06:10:00,63.7,58.8,29.93,WSW,258,0.0,0.0,84,0.00,,---,0.00,VWS V14.01,2014-07-28 11:10:00,
2014-07-28 06:11:00,63.9,58.6,29.93,WSW,258,0.0,0.0,83,0.00,,---,0.00,VWS V14.01,2014-07-28 11:11:00,
2014-07-28 06:12:00,63.7,58.8,29.93,WSW,258,0.0,0.0,84,0.00,,---,0.00,VWS V14.01,2014-07-28 11:12:00,
2014-07-28 06:13:00,63.7,58.8,29.93,WSW,258,0.0,0.0,84,0.00,,---,0.00,VWS V14.01,2014-07-28 11:13:00,
2014-07-28 06:14:00,63.7,58.8,29.93,WSW,258,0.0,0.0,84,0.00,,---,0.00,VWS V14.01,2014-07-28 11:14:00,
2014-07-28 06:15:00,63.7,58.8,29.94,NW,304,0.0,0.0,84,0.00,,---,0.00,VWS V14.01,2014-07-28 11:15:00,
2014-07-28 06:16:00,63.9,59.0,29.93,WSW,258,0.0,0.0,84,0.00,,---,0.00,VWS V14.01,2014-07-28 11:16:00,
2014-07-28 06:17:00,63.7,58.8,29.94,NNE,27,0.0,0.0,84,0.00,,---,0.00,VWS V14.01,2014-07-28 11:17:00,
2014-07-28 06:18:00,63.7,58.8,29.94,North,354,0.0,0.0,84,0.00,,---,0.00,VWS V14.01,2014-07-28 11:18:00,
2014-07-28 06:19:00,63.7,58.8,29.94,North,354,0.0,0.0,84,0.00,,---,0.00,VWS V14.01,2014-07-28 11:19:00,
2014-07-28 06:20:00,63.7,58.8,29.94,North,354,0.0,0.0,84,0.00,,---,0.00,VWS V14.01,2014-07-28 11:20:00,
2014-07-28 06:21:00,63.7,58.8,29.93,WSW,258,0.0,0.0,84,0.00,,---,0.00,VWS V14.01,2014-07-28 11:21:00,
2014-07-28 06:22:00,63.9,59.0,29.94,WNW,302,0.0,0.0,84,0.00,,---,0.00,VWS V14.01,2014-07-28 11:22:00,
2014-07-28 06:23:00,63.9,59.0,29.94,WNW,302,0.0,0.0,84,0.00,,---,0.00,VWS V14.01,2014-07-28 11:23:00,
2014-07-28 06:24:00,63.9,59.0,29.94,WNW,302,0.0,0.0,84,0.00,,---,0.00,VWS V14.01,2014-07-28 11:24:00,
2014-07-28 06:25:00,63.9,59.0,29.94,WNW,302,0.0,0.0,84,0.00,,---,0.00,VWS V14.01,2014-07-28 11:25:00,
2014-07-28 06:26:00,63.7,58.8,29.94,NNE,27,0.0,0.0,84,0.00,,---,0.00,VWS V14.01,2014-07-28 11:26:00,
2014-07-28 06:27:00,63.9,59.0,29.94,WNW,302,0.0,0.0,84,0.00,,---,0.00,VWS V14.01,2014-07-28 11:27:00,
2014-07-28 06:28:00,63.9,59.3,29.94,WNW,302,0.0,0.0,85,0.00,,---,0.00,VWS V14.01,2014-07-28 11:28:00,
2014-07-28 06:29:00,63.9,59.3,29.94,WNW,302,0.0,0.0,85,0.00,,---,0.00,VWS V14.01,2014-07-28 11:29:00,
2014-07-28 06:30:00,63.9,59.3,29.94,WNW,302,0.0,0.0,85,0.00,,---,0.00,VWS V14.01,2014-07-28 11:30:00,
2014-07-28 06:31:00,63.9,59.0,29.94,WNW,302,0.0,0.0,84,0.00,,---,0.00,VWS V14.01,2014-07-28 11:31:00,
2014-07-28 06:32:00,63.9,59.3,29.94,WNW,302,0.0,0.0,85,0.00,,---,0.00,VWS V14.01,2014-07-28 11:32:00,
2014-07-28 06:33:00,63.9,59.3,29.94,WNW,302,0.0,0.0,85,0.00,,---,0.00,VWS V14.01,2014-07-28 11:33:00,
2014-07-28 06:34:00,63.9,59.3,29.94,WNW,285,0.0,3.0,85,0.00,,---,0.00,VWS V14.01,2014-07-28 11:34:00,
2014-07-28 06:35:00,63.9,59.3,29.94,WNW,285,0.0,3.0,85,0.00,,---,0.00,VWS V14.01,2014-07-28 11:35:00,
2014-07-28 06:36:00,63.9,59.0,29.94,WNW,302,0.0,0.0,84,0.00,,---,0.00,VWS V14.01,2014-07-28 11:36:00,
2014-07-28 06:37:00,63.9,59.3,29.94,WNW,285,0.0,0.0,85,0.00,,---,0.00,VWS V14.01,2014-07-28 11:37:00,
2014-07-28 06:38:00,63.9,59.3,29.94,WNW,285,0.0,0.0,85,0.00,,---,0.00,VWS V14.01,2014-07-28 11:38:00,
2014-07-28 06:39:00,63.9,59.3,29.94,WNW,285,0.0,0.0,85,0.00,,---,0.00,VWS V14.01,2014-07-28 11:39:00,
2014-07-28 06:40:00,63.9,59.3,29.94,WNW,285,0.0,0.0,85,0.00,,---,0.00,VWS V14.01,2014-07-28 11:40:00,
2014-07-28 06:41:00,63.9,59.0,29.94,WNW,302,0.0,0.0,84,0.00,,---,0.00,VWS V14.01,2014-07-28 11:41:00,
2014-07-28 06:42:00,63.9,59.3,29.94,WNW,285,0.0,0.0,85,0.00,,---,0.00,VWS V14.01,2014-07-28 11:42:00,
2014-07-28 06:43:00,63.9,59.3,29.94,WNW,302,0.0,0.0,85,0.00,,---,0.00,VWS V14.01,2014-07-28 11:43:00,
2014-07-28 06:44:00,63.9,59.3,29.94,WNW,302,0.0,0.0,85,0.00,,---,0.00,VWS V14.01,2014-07-28 11:44:00,
2014-07-28 06:45:00,63.9,59.3,29.94,WNW,302,0.0,0.0,85,0.00,,---,0.00,VWS V14.01,2014-07-28 11:45:00,
2014-07-28 06:46:00,63.9,59.3,29.94,WNW,285,0.0,0.0,85,0.00,,---,0.00,VWS V14.01,2014-07-28 11:46:00,
2014-07-28 06:47:00,64.0,59.4,29.94,WNW,302,0.0,0.0,85,0.00,,---,0.00,VWS V14.01,2014-07-28 11:47:00,
2014-07-28 06:48:00,64.0,59.4,29.94,WNW,302,0.0,0.0,85,0.00,,---,0.00,VWS V14.01,2014-07-28 11:48:00,
2014-07-28 06:49:00,64.0,59.4,29.94,WNW,302,0.0,0.0,85,0.00,,---,0.00,VWS V14.01,2014-07-28 11:49:00,
2014-07-28 06:50:00,64.0,59.4,29.94,WNW,297,0.0,0.0,85,0.00,,---,0.00,VWS V14.01,2014-07-28 11:50:00,
2014-07-28 06:51:00,63.9,59.3,29.94,WNW,285,0.0,0.0,85,0.00,,---,0.00,VWS V14.01,2014-07-28 11:51:00,
2014-07-28 06:52:00,64.0,59.4,29.94,NNW,340,0.0,0.0,85,0.00,,---,0.00,VWS V14.01,2014-07-28 11:52:00,
2014-07-28 06:53:00,64.0,59.4,29.94,NNW,340,0.0,0.0,85,0.00,,---,0.00,VWS V14.01,2014-07-28 11:53:00,
2014-07-28 06:54:00,64.2,59.6,29.94,NNW,340,0.0,0.0,85,0.00,,---,0.00,VWS V14.01,2014-07-28 11:54:00,
2014-07-28 06:55:00,64.2,59.6,29.94,NNW,340,0.0,0.0,85,0.00,,---,0.00,VWS V14.01,2014-07-28 11:55:00,
2014-07-28 06:56:00,64.0,59.4,29.94,WNW,302,0.0,0.0,85,0.00,,---,0.00,VWS V14.01,2014-07-28 11:56:00,
2014-07-28 06:57:00,64.2,59.6,29.94,NNW,340,0.0,2.0,85,0.00,,---,0.00,VWS V14.01,2014-07-28 11:57:00,
2014-07-28 06:58:00,64.2,59.6,29.94,West,278,1.0,2.0,85,0.00,,---,0.00,VWS V14.01,2014-07-28 11:58:00,
2014-07-28 06:59:00,64.3,59.7,29.94,SW,232,0.0,2.0,85,0.00,,---,0.00,VWS V14.01,2014-07-28 11:59:00,
2014-07-28 07:00:00,64.3,59.7,29.94,SW,232,0.0,2.0,85,0.00,,---,0.00,VWS V14.01,2014-07-28 12:00:00,
2014-07-28 07:01:00,64.0,59.4,29.94,NNW,340,0.0,0.0,85,0.00,,---,0.00,VWS V14.01,2014-07-28 12:01:00,
2014-07-28 07:02:00,64.3,59.7,29.94,NNW,338,0.0,0.0,85,0.00,,---,0.00,VWS V14.01,2014-07-28 12:02:00,
2014-07-28 07:03:00,64.5,59.9,29.94,NNW,338,0.0,0.0,85,0.00,,---,0.00,VWS V14.01,2014-07-28 12:03:00,
2014-07-28 07:04:00,64.5,59.6,29.94,NNW,338,0.0,0.0,84,0.00,,---,0.00,VWS V14.01,2014-07-28 12:04:00,
2014-07-28 07:05:00,64.5,59.6,29.94,NNW,338,0.0,0.0,84,0.00,,---,0.00,VWS V14.01,2014-07-28 12:05:00,
2014-07-28 07:07:00,64.2,59.6,29.94,NNW,340,0.0,2.0,85,0.00,,---,0.00,VWS V14.01,2014-07-28 12:07:00,
2014-07-28 07:12:00,64.3,59.7,29.94,NNW,338,0.0,0.0,85,0.00,,---,0.00,VWS V14.01,2014-07-28 12:12:00,
2014-07-28 07:31:00,65.3,60.3,29.95,SW,222,0.0,0.0,84,0.00,,---,0.00,VWS V14.01,2014-07-28 12:31:00,
2014-07-28 07:32:00,65.5,60.5,29.95,NW,309,1.0,3.0,84,0.00,,---,0.00,VWS V14.01,2014-07-28 12:32:00,
2014-07-28 07:33:00,65.5,60.5,29.95,NW,309,0.0,3.0,84,0.00,,---,0.00,VWS V14.01,2014-07-28 12:33:00,
2014-07-28 07:34:00,65.6,60.6,29.95,NW,309,0.0,3.0,84,0.00,,---,0.00,VWS V14.01,2014-07-28 12:34:00,
2014-07-28 07:35:00,65.6,60.6,29.95,NW,309,0.0,3.0,84,0.00,,---,0.00,VWS V14.01,2014-07-28 12:35:00,
2014-07-28 07:36:00,65.8,60.8,29.95,North,358,2.0,4.0,84,0.00,,---,0.00,VWS V14.01,2014-07-28 12:36:00,
2014-07-28 07:37:00,65.8,60.5,29.95,WSW,254,2.0,6.0,83,0.00,,---,0.00,VWS V14.01,2014-07-28 12:37:00,
2014-07-28 07:38:00,66.0,60.7,29.95,West,267,0.0,6.0,83,0.00,,---,0.00,VWS V14.01,2014-07-28 12:38:00,
2014-07-28 07:39:00,66.0,60.7,29.95,West,267,3.0,6.0,83,0.00,,---,0.00,VWS V14.01,2014-07-28 12:39:00,
2014-07-28 07:40:00,66.1,60.8,29.95,West,266,2.0,6.0,83,0.00,,---,0.00,VWS V14.01,2014-07-28 12:40:00,
2014-07-28 07:41:00,66.3,61.0,29.95,West,260,1.0,3.0,83,0.00,,---,0.00,VWS V14.01,2014-07-28 12:41:00,
2014-07-28 07:42:00,66.3,61.0,29.95,NE,37,3.0,3.0,83,0.00,,---,0.00,VWS V14.01,2014-07-28 12:42:00,
2014-07-28 07:43:00,66.4,60.7,29.95,NNW,345,0.0,3.0,82,0.00,,---,0.00,VWS V14.01,2014-07-28 12:43:00,
2014-07-28 07:44:00,66.4,60.7,29.95,WNW,293,0.0,3.0,82,0.00,,---,0.00,VWS V14.01,2014-07-28 12:44:00,
2014-07-28 07:45:00,65.8,60.8,29.95,North,358,2.0,4.0,84,0.00,,---,0.00,VWS V14.01,2014-07-28 12:45:00,
2014-07-28 07:46:00,66.6,60.9,29.96,North,9,0.0,3.0,82,0.00,,---,0.00,VWS V14.01,2014-07-28 12:46:00,
2014-07-28 07:47:00,66.8,61.1,29.96,NNE,31,3.0,3.0,82,0.00,,---,0.00,VWS V14.01,2014-07-28 12:47:00,
2014-07-28 07:48:00,66.8,61.1,29.96,NNE,15,0.0,3.0,82,0.00,,---,0.00,VWS V14.01,2014-07-28 12:48:00,
2014-07-28 07:49:00,66.9,61.2,29.96,North,356,1.0,3.0,82,0.00,,---,0.00,VWS V14.01,2014-07-28 12:49:00,
2014-07-28 07:50:00,66.3,61.0,29.95,West,260,1.0,3.0,83,0.00,,---,0.00,VWS V14.01,2014-07-28 12:50:00,
2014-07-28 07:51:00,67.1,61.4,29.96,North,356,0.0,0.0,82,0.00,,---,0.00,VWS V14.01,2014-07-28 12:51:00,
2014-07-28 07:52:00,67.1,61.1,29.96,North,0,0.0,3.0,81,0.00,,---,0.00,VWS V14.01,2014-07-28 12:52:00,
2014-07-28 07:53:00,67.3,61.3,29.96,North,351,1.0,3.0,81,0.00,,---,0.00,VWS V14.01,2014-07-28 12:53:00,
2014-07-28 07:54:00,67.3,61.3,29.96,North,0,0.0,3.0,81,0.00,,---,0.00,VWS V14.01,2014-07-28 12:54:00,
2014-07-28 07:55:00,66.6,60.9,29.96,North,9,0.0,3.0,82,0.00,,---,0.00,VWS V14.01,2014-07-28 12:55:00,
2014-07-28 07:56:00,67.4,61.0,29.96,NNE,33,2.0,6.0,80,0.00,,---,0.00,VWS V14.01,2014-07-28 12:56:00,
2014-07-28 07:57:00,67.4,61.0,29.96,NNE,33,0.0,6.0,80,0.00,,---,0.00,VWS V14.01,2014-07-28 12:57:00,
2014-07-28 07:58:00,67.6,61.6,29.96,North,354,0.0,6.0,81,0.00,,---,0.00,VWS V14.01,2014-07-28 12:58:00,
2014-07-28 07:59:00,67.6,61.6,29.96,North,358,2.0,6.0,81,0.00,,---,0.00,VWS V14.01,2014-07-28 12:59:00,
2014-07-28 08:00:00,67.1,61.4,29.96,North,356,0.0,0.0,82,0.00,,---,0.00,VWS V14.01,2014-07-28 13:00:00,
2014-07-28 08:01:00,67.8,61.8,29.96,West,275,0.0,3.0,81,0.00,,---,0.00,VWS V14.01,2014-07-28 13:01:00,
2014-07-28 08:02:00,67.8,61.4,29.96,NW,318,1.0,4.0,80,0.00,,---,0.00,VWS V14.01,2014-07-28 13:02:00,
2014-07-28 08:03:00,67.9,61.5,29.96,North,0,2.0,4.0,80,0.00,,---,0.00,VWS V14.01,2014-07-28 13:03:00,
2014-07-28 08:04:00,67.9,61.5,29.96,North,356,0.0,4.0,80,0.00,,---,0.00,VWS V14.01,2014-07-28 13:04:00,
2014-07-28 08:05:00,67.4,61.0,29.96,NE,39,5.0,6.0,80,0.00,,---,0.00,VWS V14.01,2014-07-28 13:05:00,
2014-07-28 08:06:00,68.1,61.3,29.96,NNE,18,3.0,3.0,79,0.00,,---,0.00,VWS V14.01,2014-07-28 13:06:00,
2014-07-28 08:07:00,68.1,61.3,29.96,NNW,335,4.0,4.0,79,0.00,,---,0.00,VWS V14.01,2014-07-28 13:07:00,
2014-07-28 08:08:00,68.3,61.5,29.96,North,355,0.0,4.0,79,0.00,,---,0.00,VWS V14.01,2014-07-28 13:08:00,
2014-07-28 08:09:00,68.3,61.9,29.96,North,355,0.0,4.0,80,0.00,,---,0.00,VWS V14.01,2014-07-28 13:09:00,
2014-07-28 08:10:00,67.8,61.8,29.96,West,275,0.0,3.0,81,0.00,,---,0.00,VWS V14.01,2014-07-28 13:10:00,
2014-07-28 08:11:00,68.4,61.6,29.96,North,352,4.0,5.0,79,0.00,,---,0.00,VWS V14.01,2014-07-28 13:11:00,
2014-07-28 08:12:00,68.6,61.8,29.96,WSW,248,2.0,5.0,79,0.00,,---,0.00,VWS V14.01,2014-07-28 13:12:00,
2014-07-28 08:13:00,68.6,61.5,29.96,NNW,347,4.0,5.0,78,0.00,,---,0.00,VWS V14.01,2014-07-28 13:13:00,
2014-07-28 08:14:00,68.8,61.7,29.96,North,352,0.0,5.0,78,0.00,,---,0.00,VWS V14.01,2014-07-28 13:14:00,
2014-07-28 08:15:00,68.1,61.3,29.96,NNE,18,3.0,3.0,79,0.00,,---,0.00,VWS V14.01,2014-07-28 13:15:00,
2014-07-28 08:16:00,68.9,62.1,29.97,East,95,0.0,0.0,79,0.00,,---,0.00,VWS V14.01,2014-07-28 13:16:00,
2014-07-28 08:17:00,68.9,61.4,29.97,North,0,4.0,5.0,77,0.00,,---,0.00,VWS V14.01,2014-07-28 13:17:00,
2014-07-28 08:18:00,68.9,61.4,29.97,North,1,4.0,7.0,77,0.00,,---,0.00,VWS V14.01,2014-07-28 13:18:00,
2014-07-28 08:19:00,69.1,61.6,29.97,NNW,338,1.0,7.0,77,0.00,,---,0.00,VWS V14.01,2014-07-28 13:19:00,
2014-07-28 08:20:00,68.4,61.6,29.96,North,354,1.0,5.0,79,0.00,,---,0.00,VWS V14.01,2014-07-28 13:20:00,
2014-07-28 08:21:00,69.1,62.0,29.97,NNW,347,0.0,4.0,78,0.00,,---,0.00,VWS V14.01,2014-07-28 13:21:00,
2014-07-28 08:22:00,69.3,62.2,29.97,West,273,2.0,5.0,78,0.00,,---,0.00,VWS V14.01,2014-07-28 13:22:00,
2014-07-28 08:23:00,69.3,61.4,29.97,North,0,3.0,5.0,76,0.00,,---,0.00,VWS V14.01,2014-07-28 13:23:00,
2014-07-28 08:24:00,69.3,61.4,29.97,NNE,24,2.0,7.0,76,0.00,,---,0.00,VWS V14.01,2014-07-28 13:24:00,
2014-07-28 08:25:00,68.9,62.1,29.97,East,95,0.0,0.0,79,0.00,,---,0.00,VWS V14.01,2014-07-28 13:25:00,
2014-07-28 08:26:00,69.4,61.9,29.97,North,8,1.0,4.0,77,0.00,,---,0.00,VWS V14.01,2014-07-28 13:26:00,
2014-07-28 08:27:00,69.4,61.5,29.97,North,2,2.0,4.0,76,0.00,,---,0.00,VWS V14.01,2014-07-28 13:27:00,
2014-07-28 08:28:00,69.4,61.9,29.97,North,4,0.0,4.0,77,0.00,,---,0.00,VWS V14.01,2014-07-28 13:28:00,
2014-07-28 08:29:00,69.6,62.1,29.97,North,0,2.0,4.0,77,0.00,,---,0.00,VWS V14.01,2014-07-28 13:29:00,
2014-07-28 08:30:00,69.1,62.0,29.97,NNW,347,0.0,4.0,78,0.00,,---,0.00,VWS V14.01,2014-07-28 13:30:00,
2014-07-28 08:31:00,69.8,62.3,29.97,North,356,2.0,2.0,77,0.00,,---,0.00,VWS V14.01,2014-07-28 13:31:00,
2014-07-28 08:32:00,69.8,61.9,29.97,North,6,2.0,7.0,76,0.00,,---,0.00,VWS V14.01,2014-07-28 13:32:00,
2014-07-28 08:33:00,69.9,62.0,29.97,NNE,20,2.0,7.0,76,0.00,,---,0.00,VWS V14.01,2014-07-28 13:33:00,
2014-07-28 08:34:00,69.9,62.0,29.97,NE,37,1.0,7.0,76,0.00,,---,0.00,VWS V14.01,2014-07-28 13:34:00,
2014-07-28 08:35:00,69.4,61.9,29.97,North,8,2.0,4.0,77,0.00,,---,0.00,VWS V14.01,2014-07-28 13:35:00,
2014-07-28 08:36:00,70.1,61.8,29.97,North,0,1.0,5.0,75,0.00,,---,0.00,VWS V14.01,2014-07-28 13:36:00,
2014-07-28 08:37:00,70.3,62.4,29.97,NNE,24,2.0,5.0,76,0.00,,---,0.00,VWS V14.01,2014-07-28 13:37:00,
2014-07-28 08:38:00,70.3,62.0,29.97,North,354,5.0,5.0,75,0.00,,---,0.00,VWS V14.01,2014-07-28 13:38:00,
2014-07-28 08:39:00,70.3,62.0,29.97,North,358,0.0,5.0,75,0.00,,---,0.00,VWS V14.01,2014-07-28 13:39:00,
2014-07-28 08:40:00,69.8,62.3,29.97,North,356,2.0,2.0,77,0.00,,---,0.00,VWS V14.01,2014-07-28 13:40:00,
2014-07-28 08:41:00,70.4,62.1,29.97,NNE,14,2.0,6.0,75,0.00,,---,0.00,VWS V14.01,2014-07-28 13:41:00,
2014-07-28 08:42:00,70.4,62.1,29.97,NNE,31,0.0,6.0,75,0.00,,---,0.00,VWS V14.01,2014-07-28 13:42:00,
2014-07-28 08:43:00,70.4,62.5,29.97,NNW,346,5.0,6.0,76,0.00,,---,0.00,VWS V14.01,2014-07-28 13:43:00,
2014-07-28 08:44:00,70.4,61.7,29.97,NNW,343,4.0,6.0,74,0.00,,---,0.00,VWS V14.01,2014-07-28 13:44:00,
2014-07-28 08:45:00,70.1,61.8,29.97,North,0,1.0,5.0,75,0.00,,---,0.00,VWS V14.01,2014-07-28 13:45:00,
2014-07-28 08:46:00,70.4,62.1,29.97,ENE,58,4.0,4.0,75,0.00,,---,0.00,VWS V14.01,2014-07-28 13:46:00,
2014-07-28 08:47:00,70.4,62.8,29.97,NNE,15,1.0,4.0,77,0.00,,---,0.00,VWS V14.01,2014-07-28 13:47:00,
2014-07-28 08:48:00,70.4,62.5,29.97,NNW,343,5.0,9.0,76,0.00,,---,0.00,VWS V14.01,2014-07-28 13:48:00,
2014-07-28 08:49:00,70.4,62.5,29.97,North,1,3.0,9.0,76,0.00,,---,0.00,VWS V14.01,2014-07-28 13:49:00,
2014-07-28 08:50:00,70.4,62.1,29.97,NNE,15,3.0,6.0,75,0.00,,---,0.00,VWS V14.01,2014-07-28 13:50:00,
2014-07-28 08:51:00,70.4,61.7,29.97,North,351,2.0,4.0,74,0.00,,---,0.00,VWS V14.01,2014-07-28 13:51:00,
2014-07-28 08:52:00,70.4,62.1,29.97,NNW,332,6.0,6.0,75,0.00,,---,0.00,VWS V14.01,2014-07-28 13:52:00,
2014-07-28 08:53:00,70.4,61.7,29.97,NW,319,0.0,6.0,74,0.00,,---,0.00,VWS V14.01,2014-07-28 13:53:00,
2014-07-28 08:54:00,70.3,61.6,29.97,NW,304,0.0,6.0,74,0.00,,---,0.00,VWS V14.01,2014-07-28 13:54:00,
2014-07-28 08:55:00,70.4,62.1,29.97,ENE,58,4.0,4.0,75,0.00,,---,0.00,VWS V14.01,2014-07-28 13:55:00,
2014-07-28 08:56:00,70.3,62.0,29.97,North,356,1.0,4.0,75,0.00,,---,0.00,VWS V14.01,2014-07-28 13:56:00,
2014-07-28 08:57:00,70.3,62.0,29.97,North,4,0.0,4.0,75,0.00,,---,0.00,VWS V14.01,2014-07-28 13:57:00,
2014-07-28 08:58:00,70.4,62.5,29.97,North,4,0.0,4.0,76,0.00,,---,0.00,VWS V14.01,2014-07-28 13:58:00,
2014-07-28 08:59:00,70.4,62.1,29.97,NW,322,0.0,4.0,75,0.00,,---,0.00,VWS V14.01,2014-07-28 13:59:00,
2014-07-28 09:00:00,70.4,61.7,29.97,North,351,2.0,4.0,74,0.00,,---,0.00,VWS V14.01,2014-07-28 14:00:00,
2014-07-28 09:01:00,70.6,62.3,29.97,North,350,0.0,2.0,75,0.00,,---,0.00,VWS V14.01,2014-07-28 14:01:00,
2014-07-28 09:02:00,70.8,62.9,29.97,North,350,0.0,2.0,76,0.00,,---,0.00,VWS V14.01,2014-07-28 14:02:00,
2014-07-28 09:03:00,70.8,62.9,29.97,SE,143,0.0,2.0,76,0.00,,---,0.00,VWS V14.01,2014-07-28 14:03:00,
2014-07-28 09:04:00,70.9,62.2,29.97,North,0,5.0,5.0,74,0.00,,---,0.00,VWS V14.01,2014-07-28 14:04:00,
2014-07-28 09:05:00,70.3,62.0,29.97,North,354,4.0,4.0,75,0.00,,---,0.00,VWS V14.01,2014-07-28 14:05:00,
2014-07-28 09:06:00,71.1,62.8,29.97,NNW,332,0.0,2.0,75,0.00,,---,0.00,VWS V14.01,2014-07-28 14:06:00,
2014-07-28 09:07:00,71.1,62.4,29.97,North,354,1.0,2.0,74,0.00,,---,0.00,VWS V14.01,2014-07-28 14:07:00,
2014-07-28 09:08:00,71.1,62.8,29.97,NNE,12,6.0,6.0,75,0.00,,---,0.00,VWS V14.01,2014-07-28 14:08:00,
2014-07-28 09:09:00,71.1,62.4,29.97,NW,324,0.0,6.0,74,0.00,,---,0.00,VWS V14.01,2014-07-28 14:09:00,
2014-07-28 09:10:00,70.6,62.3,29.97,North,350,0.0,2.0,75,0.00,,---,0.00,VWS V14.01,2014-07-28 14:10:00,
2014-07-28 09:11:00,71.3,62.6,29.97,NW,323,0.0,0.0,74,0.00,,---,0.00,VWS V14.01,2014-07-28 14:11:00,
2014-07-28 09:12:00,71.3,62.6,29.97,NNE,12,0.0,1.0,74,0.00,,---,0.00,VWS V14.01,2014-07-28 14:12:00,
2014-07-28 09:13:00,71.3,62.2,29.97,NNE,13,2.0,4.0,73,0.00,,---,0.00,VWS V14.01,2014-07-28 14:13:00,
2014-07-28 09:14:00,71.3,62.6,29.97,North,350,2.0,4.0,74,0.00,,---,0.00,VWS V14.01,2014-07-28 14:14:00,
2014-07-28 09:15:00,71.3,62.6,29.98,North,0,4.0,5.0,74,0.00,,---,0.00,VWS V14.01,2014-07-28 14:15:00,
2014-07-28 09:16:00,71.1,62.8,29.97,NNW,332,0.0,2.0,75,0.00,,---,0.00,VWS V14.01,2014-07-28 14:16:00,
2014-07-28 09:17:00,71.3,62.6,29.98,North,1,1.0,4.0,74,0.00,,---,0.00,VWS V14.01,2014-07-28 14:17:00,
2014-07-28 09:18:00,71.3,62.6,29.98,NE,43,3.0,4.0,74,0.00,,---,0.00,VWS V14.01,2014-07-28 14:18:00,
2014-07-28 09:19:00,71.3,62.6,29.98,NNW,335,7.0,7.0,74,0.00,,---,0.00,VWS V14.01,2014-07-28 14:19:00,
2014-07-28 09:20:00,71.3,62.6,29.97,NW,323,0.0,0.0,74,0.00,,---,0.00,VWS V14.01,2014-07-28 14:20:00,
2014-07-28 09:21:00,71.5,62.8,29.98,WNW,299,3.0,4.0,74,0.00,,---,0.00,VWS V14.01,2014-07-28 14:21:00,
2014-07-28 09:22:00,71.6,62.1,29.98,North,9,4.0,6.0,72,0.00,,---,0.00,VWS V14.01,2014-07-28 14:22:00,
2014-07-28 09:23:00,71.6,62.9,29.98,North,11,0.0,6.0,74,0.00,,---,0.00,VWS V14.01,2014-07-28 14:23:00,
2014-07-28 09:24:00,71.8,63.5,29.98,North,6,0.0,6.0,75,0.00,,---,0.00,VWS V14.01,2014-07-28 14:24:00,
2014-07-28 09:25:00,71.3,62.2,29.98,NNE,19,1.0,4.0,73,0.00,,---,0.00,VWS V14.01,2014-07-28 14:25:00,
2014-07-28 09:26:00,71.8,62.3,29.98,WSW,258,0.0,0.0,72,0.00,,---,0.00,VWS V14.01,2014-07-28 14:26:00,
2014-07-28 09:27:00,71.8,62.7,29.98,NE,41,5.0,5.0,73,0.00,,---,0.00,VWS V14.01,2014-07-28 14:27:00,
2014-07-28 09:28:00,71.8,62.3,29.98,NNE,27,2.0,5.0,72,0.00,,---,0.00,VWS V14.01,2014-07-28 14:28:00,
2014-07-28 09:29:00,71.8,62.3,29.98,North,2,2.0,5.0,72,0.00,,---,0.00,VWS V14.01,2014-07-28 14:29:00,
2014-07-28 09:30:00,71.5,62.8,29.98,WNW,299,3.0,4.0,74,0.00,,---,0.00,VWS V14.01,2014-07-28 14:30:00,
2014-07-28 09:31:00,72.0,63.3,29.98,West,262,0.0,0.0,74,0.00,,---,0.00,VWS V14.01,2014-07-28 14:31:00,
2014-07-28 09:32:00,72.0,63.3,29.98,West,262,0.0,0.0,74,0.00,,---,0.00,VWS V14.01,2014-07-28 14:32:00,
2014-07-28 09:33:00,72.0,62.9,29.98,North,358,5.0,5.0,73,0.00,,---,0.00,VWS V14.01,2014-07-28 14:33:00,
2014-07-28 09:34:00,72.0,62.1,29.98,North,349,7.0,7.0,71,0.00,,---,0.00,VWS V14.01,2014-07-28 14:34:00,
2014-07-28 09:35:00,71.8,62.3,29.98,WSW,258,0.0,0.0,72,0.00,,---,0.00,VWS V14.01,2014-07-28 14:35:00,
2014-07-28 09:36:00,71.8,62.7,29.98,NNW,333,4.0,4.0,73,0.00,,---,0.00,VWS V14.01,2014-07-28 14:36:00,
2014-07-28 09:37:00,71.6,62.5,29.98,North,0,3.0,4.0,73,0.00,,---,0.00,VWS V14.01,2014-07-28 14:37:00,
2014-07-28 09:38:00,71.6,62.5,29.98,North,0,3.0,5.0,73,0.00,,---,0.00,VWS V14.01,2014-07-28 14:38:00,
2014-07-28 09:39:00,71.6,62.5,29.98,North,0,0.0,5.0,73,0.00,,---,0.00,VWS V14.01,2014-07-28 14:39:00,
2014-07-28 09:40:00,72.0,63.3,29.98,West,262,0.0,0.0,74,0.00,,---,0.00,VWS V14.01,2014-07-28 14:40:00,
2014-07-28 09:41:00,71.5,62.8,29.98,NNE,22,0.0,1.0,74,0.00,,---,0.00,VWS V14.01,2014-07-28 14:41:00,
2014-07-28 09:42:00,71.5,62.8,29.98,WNW,295,0.0,1.0,74,0.00,,---,0.00,VWS V14.01,2014-07-28 14:42:00,
2014-07-28 09:43:00,71.5,62.4,29.98,WNW,295,0.0,1.0,73,0.00,,---,0.00,VWS V14.01,2014-07-28 14:43:00,
2014-07-28 09:44:00,71.5,62.4,29.98,NW,319,1.0,5.0,73,0.00,,---,0.00,VWS V14.01,2014-07-28 14:44:00,
2014-07-28 09:45:00,71.8,62.7,29.98,NNW,333,4.0,4.0,73,0.00,,---,0.00,VWS V14.01,2014-07-28 14:45:00,
2014-07-28 09:46:00,71.3,62.2,29.98,NNW,338,0.0,2.0,73,0.00,,---,0.00,VWS V14.01,2014-07-28 14:46:00,
2014-07-28 09:47:00,71.3,62.6,29.98,North,358,1.0,2.0,74,0.00,,---,0.00,VWS V14.01,2014-07-28 14:47:00,
2014-07-28 09:48:00,71.3,62.6,29.98,North,358,0.0,2.0,74,0.00,,---,0.00,VWS V14.01,2014-07-28 14:48:00,
2014-07-28 09:49:00,71.3,62.6,29.98,North,358,0.0,2.0,74,0.00,,---,0.00,VWS V14.01,2014-07-28 14:49:00,
2014-07-28 09:50:00,71.5,62.8,29.98,NNE,22,0.0,1.0,74,0.00,,---,0.00,VWS V14.01,2014-07-28 14:50:00,
2014-07-28 09:51:00,71.3,62.6,29.98,North,2,0.0,6.0,74,0.00,,---,0.00,VWS V14.01,2014-07-28 14:51:00,
2014-07-28 09:52:00,71.3,62.6,29.98,North,2,0.0,6.0,74,0.00,,---,0.00,VWS V14.01,2014-07-28 14:52:00,
2014-07-28 09:53:00,71.3,62.6,29.98,NNW,336,0.0,6.0,74,0.00,,---,0.00,VWS V14.01,2014-07-28 14:53:00,
2014-07-28 09:54:00,71.3,62.2,29.98,West,266,2.0,6.0,73,0.00,,---,0.00,VWS V14.01,2014-07-28 14:54:00,
2014-07-28 09:55:00,71.3,62.2,29.98,NNW,338,0.0,2.0,73,0.00,,---,0.00,VWS V14.01,2014-07-28 14:55:00,
2014-07-28 09:56:00,71.3,62.6,29.98,West,281,0.0,0.0,74,0.00,,---,0.00,VWS V14.01,2014-07-28 14:56:00,
2014-07-28 09:57:00,71.3,62.6,29.98,North,11,0.0,0.0,74,0.00,,---,0.00,VWS V14.01,2014-07-28 14:57:00,
2014-07-28 09:58:00,71.5,62.8,29.98,North,11,0.0,0.0,74,0.00,,---,0.00,VWS V14.01,2014-07-28 14:58:00,
2014-07-28 09:59:00,71.5,63.2,29.98,NW,316,2.0,4.0,75,0.00,,---,0.00,VWS V14.01,2014-07-28 14:59:00,
2014-07-28 10:00:00,71.3,62.6,29.98,North,2,0.0,6.0,74,0.00,,---,0.00,VWS V14.01,2014-07-28 15:00:00,
2014-07-28 10:01:00,71.6,62.5,29.98,NNW,340,2.0,2.0,73,0.00,,---,0.00,VWS V14.01,2014-07-28 15:01:00,
2014-07-28 10:02:00,71.8,63.1,29.98,NE,44,3.0,7.0,74,0.00,,---,0.00,VWS V14.01,2014-07-28 15:02:00,
2014-07-28 10:03:00,71.8,61.9,29.98,NNE,20,2.0,7.0,71,0.00,,---,0.00,VWS V14.01,2014-07-28 15:03:00,
2014-07-28 10:04:00,71.8,61.9,29.98,North,11,1.0,7.0,71,0.00,,---,0.00,VWS V14.01,2014-07-28 15:04:00,
2014-07-28 10:05:00,71.3,62.6,29.98,West,281,0.0,0.0,74,0.00,,---,0.00,VWS V14.01,2014-07-28 15:05:00,
2014-07-28 10:06:00,71.8,62.7,29.98,NE,49,1.0,2.0,73,0.00,,---,0.00,VWS V14.01,2014-07-28 15:06:00,
2014-07-28 10:07:00,72.0,62.9,29.98,North,8,2.0,3.0,73,0.00,,---,0.00,VWS V14.01,2014-07-28 15:07:00,
2014-07-28 10:08:00,72.0,62.9,29.98,North,0,1.0,3.0,73,0.00,,---,0.00,VWS V14.01,2014-07-28 15:08:00,
2014-07-28 10:09:00,72.1,63.0,29.98,North,0,1.0,3.0,73,0.00,,---,0.00,VWS V14.01,2014-07-28 15:09:00,
2014-07-28 10:10:00,71.6,62.5,29.98,NNW,340,2.0,2.0,73,0.00,,---,0.00,VWS V14.01,2014-07-28 15:10:00,
2014-07-28 10:11:00,72.5,63.8,29.98,NW,311,2.0,3.0,74,0.00,,---,0.00,VWS V14.01,2014-07-28 15:11:00,
2014-07-28 10:12:00,72.8,64.0,29.98,NW,312,0.0,3.0,74,0.00,,---,0.00,VWS V14.01,2014-07-28 15:12:00,
2014-07-28 10:13:00,73.0,63.5,29.98,WNW,294,2.0,3.0,72,0.00,,---,0.00,VWS V14.01,2014-07-28 15:13:00,
2014-07-28 10:14:00,73.3,63.3,29.98,NNW,337,3.0,3.0,71,0.00,,---,0.00,VWS V14.01,2014-07-28 15:14:00,
2014-07-28 10:15:00,73.3,62.5,29.99,NE,37,5.0,6.0,69,0.00,,---,0.00,VWS V14.01,2014-07-28 15:15:00,
2014-07-28 10:16:00,73.5,62.3,29.99,North,358,3.0,6.0,68,0.00,,---,0.00,VWS V14.01,2014-07-28 15:16:00,
2014-07-28 10:17:00,72.0,63.3,29.98,North,0,1.0,3.0,74,0.00,,---,0.00,VWS V14.01,2014-07-28 15:17:00,
2014-07-28 10:18:00,73.7,62.5,29.99,North,358,4.0,6.0,68,0.00,,---,0.00,VWS V14.01,2014-07-28 15:18:00,
2014-07-28 10:19:00,73.7,62.5,29.99,North,8,6.0,10.0,68,0.00,,---,0.00,VWS V14.01,2014-07-28 15:19:00,
2014-07-28 10:20:00,73.7,63.3,29.99,NNE,19,3.0,10.0,70,0.00,,---,0.00,VWS V14.01,2014-07-28 15:20:00,
2014-07-28 10:21:00,73.7,63.7,29.99,NNE,19,0.0,3.0,71,0.00,,---,0.00,VWS V14.01,2014-07-28 15:21:00,
2014-07-28 10:22:00,73.0,63.5,29.98,WNW,294,2.0,3.0,72,0.00,,---,0.00,VWS V14.01,2014-07-28 15:22:00,
2014-07-28 10:23:00,73.7,63.3,29.99,West,261,0.0,3.0,70,0.00,,---,0.00,VWS V14.01,2014-07-28 15:23:00,
2014-07-28 10:24:00,73.9,63.5,29.99,WSW,250,2.0,3.0,70,0.00,,---,0.00,VWS V14.01,2014-07-28 15:24:00,
2014-07-28 10:25:00,74.0,63.6,29.99,NW,319,1.0,3.0,70,0.00,,---,0.00,VWS V14.01,2014-07-28 15:25:00,
2014-07-28 10:26:00,74.2,63.4,29.99,WNW,300,0.0,3.0,69,0.00,,---,0.00,VWS V14.01,2014-07-28 15:26:00,
2014-07-28 10:27:00,73.7,62.5,29.99,North,358,4.0,6.0,68,0.00,,---,0.00,VWS V14.01,2014-07-28 15:27:00,
2014-07-28 10:28:00,74.6,63.8,29.99,North,2,1.0,5.0,69,0.00,,---,0.00,VWS V14.01,2014-07-28 15:28:00,
2014-07-28 10:29:00,74.6,63.3,29.99,North,352,4.0,5.0,68,0.00,,---,0.00,VWS V14.01,2014-07-28 15:29:00,
2014-07-28 10:30:00,74.6,62.5,29.98,NE,39,0.0,5.0,66,0.00,,---,0.00,VWS V14.01,2014-07-28 15:30:00,
2014-07-28 10:31:00,74.7,63.0,29.98,North,356,10.0,10.0,67,0.00,,---,0.00,VWS V14.01,2014-07-28 15:31:00,
2014-07-28 10:32:00,73.7,63.3,29.99,North,358,0.0,3.0,70,0.00,,---,0.00,VWS V14.01,2014-07-28 15:32:00,
2014-07-28 10:33:00,74.7,62.6,29.98,North,0,1.0,10.0,66,0.00,,---,0.00,VWS V14.01,2014-07-28 15:33:00,
2014-07-28 10:34:00,74.7,62.6,29.98,ENE,72,6.0,10.0,66,0.00,,---,0.00,VWS V14.01,2014-07-28 15:34:00,
2014-07-28 10:35:00,74.7,62.6,29.98,NE,34,2.0,10.0,66,0.00,,---,0.00,VWS V14.01,2014-07-28 15:35:00,
2014-07-28 10:36:00,74.7,62.6,29.98,NNW,340,4.0,4.0,66,0.00,,---,0.00,VWS V14.01,2014-07-28 15:36:00,
2014-07-28 10:37:00,74.6,63.8,29.99,North,2,1.0,5.0,69,0.00,,---,0.00,VWS V14.01,2014-07-28 15:37:00,
2014-07-28 10:38:00,74.6,62.9,29.98,NNE,28,4.0,5.0,67,0.00,,---,0.00,VWS V14.01,2014-07-28 15:38:00,
2014-07-28 10:39:00,74.4,62.7,29.98,WSW,240,0.0,5.0,67,0.00,,---,0.00,VWS V14.01,2014-07-28 15:39:00,
2014-07-28 10:40:00,74.4,63.2,29.98,NE,51,3.0,5.0,68,0.00,,---,0.00,VWS V14.01,2014-07-28 15:40:00,
2014-07-28 10:41:00,74.4,62.7,29.98,North,2,1.0,6.0,67,0.00,,---,0.00,VWS V14.01,2014-07-28 15:41:00,
2014-07-28 10:42:00,74.7,62.6,29.98,North,0,1.0,10.0,66,0.00,,---,0.00,VWS V14.01,2014-07-28 15:42:00,
2014-07-28 10:43:00,74.2,63.0,29.98,WSW,248,1.0,6.0,68,0.00,,---,0.00,VWS V14.01,2014-07-28 15:43:00,
2014-07-28 10:44:00,74.2,63.0,29.98,NE,37,4.0,6.0,68,0.00,,---,0.00,VWS V14.01,2014-07-28 15:44:00,
2014-07-28 10:45:00,74.2,63.0,29.99,NE,46,3.0,6.0,68,0.00,,---,0.00,VWS V14.01,2014-07-28 15:45:00,
2014-07-28 10:46:00,74.2,63.0,29.99,NE,46,3.0,3.0,68,0.00,,---,0.00,VWS V14.01,2014-07-28 15:46:00,
2014-07-28 10:47:00,74.6,63.3,29.98,North,353,2.0,5.0,68,0.00,,---,0.00,VWS V14.01,2014-07-28 15:47:00,
2014-07-28 10:48:00,74.2,63.8,29.99,NNE,13,3.0,7.0,70,0.00,,---,0.00,VWS V14.01,2014-07-28 15:48:00,
2014-07-28 10:49:00,74.2,62.5,29.99,North,358,4.0,7.0,67,0.00,,---,0.00,VWS V14.01,2014-07-28 15:49:00,
2014-07-28 10:50:00,74.2,62.5,29.99,NNE,15,2.0,7.0,67,0.00,,---,0.00,VWS V14.01,2014-07-28 15:50:00,
2014-07-28 10:51:00,74.2,62.5,29.99,NNW,342,3.0,4.0,67,0.00,,---,0.00,VWS V14.01,2014-07-28 15:51:00,
2014-07-28 10:52:00,74.2,63.0,29.98,WSW,248,1.0,6.0,68,0.00,,---,0.00,VWS V14.01,2014-07-28 15:52:00,
2014-07-28 10:53:00,74.4,62.7,29.99,North,352,0.0,4.0,67,0.00,,---,0.00,VWS V14.01,2014-07-28 15:53:00,
2014-07-28 10:54:00,74.4,63.6,29.99,WNW,290,4.0,4.0,69,0.00,,---,0.00,VWS V14.01,2014-07-28 15:54:00,
2014-07-28 10:55:00,74.4,63.6,29.99,NW,317,2.0,4.0,69,0.00,,---,0.00,VWS V14.01,2014-07-28 15:55:00,
2014-07-28 10:56:00,74.4,62.3,29.99,NNW,334,4.0,6.0,66,0.00,,---,0.00,VWS V14.01,2014-07-28 15:56:00,
2014-07-28 10:57:00,74.2,63.8,29.99,NNE,13,3.0,7.0,70,0.00,,---,0.00,VWS V14.01,2014-07-28 15:57:00,
2014-07-28 10:58:00,74.4,62.7,29.99,NNW,345,2.0,6.0,67,0.00,,---,0.00,VWS V14.01,2014-07-28 15:58:00,
2014-07-28 10:59:00,74.2,62.5,29.99,NW,321,2.0,6.0,67,0.00,,---,0.00,VWS V14.01,2014-07-28 15:59:00,
2014-07-28 11:00:00,74.2,63.0,30.00,NW,312,0.0,6.0,68,0.00,,---,0.00,VWS V14.01,2014-07-28 16:00:00,
2014-07-28 11:01:00,74.2,63.0,30.00,NW,324,0.0,0.0,68,0.00,,---,0.00,VWS V14.01,2014-07-28 16:01:00,
2014-07-28 11:02:00,74.4,62.7,29.99,North,352,0.0,4.0,67,0.00,,---,0.00,VWS V14.01,2014-07-28 16:02:00,
2014-07-28 11:03:00,74.2,63.0,30.00,NNE,25,0.0,6.0,68,0.00,,---,0.00,VWS V14.01,2014-07-28 16:03:00,
2014-07-28 11:04:00,74.4,63.2,30.00,North,11,2.0,6.0,68,0.00,,---,0.00,VWS V14.01,2014-07-28 16:04:00,
2014-07-28 11:05:00,74.4,62.7,30.00,NNW,347,4.0,6.0,67,0.00,,---,0.00,VWS V14.01,2014-07-28 16:05:00,
2014-07-28 11:06:00,74.4,62.7,30.00,West,269,1.0,4.0,67,0.00,,---,0.00,VWS V14.01,2014-07-28 16:06:00,
2014-07-28 11:07:00,74.4,62.7,29.99,NNW,345,2.0,6.0,67,0.00,,---,0.00,VWS V14.01,2014-07-28 16:07:00,
2014-07-28 11:08:00,74.4,64.4,30.00,North,358,0.0,5.0,71,0.00,,---,0.00,VWS V14.01,2014-07-28 16:08:00,
2014-07-28 11:09:00,74.6,62.9,30.00,NNW,331,0.0,5.0,67,0.00,,---,0.00,VWS V14.01,2014-07-28 16:09:00,
2014-07-28 11:10:00,74.6,62.9,30.00,WNW,289,5.0,5.0,67,0.00,,---,0.00,VWS V14.01,2014-07-28 16:10:00,
2014-07-28 11:11:00,74.6,62.5,30.00,North,4,1.0,5.0,66,0.00,,---,0.00,VWS V14.01,2014-07-28 16:11:00,
2014-07-28 11:12:00,74.2,63.0,30.00,NNE,25,0.0,6.0,68,0.00,,---,0.00,VWS V14.01,2014-07-28 16:12:00,
2014-07-28 11:13:00,74.6,62.5,30.00,North,358,2.0,7.0,66,0.00,,---,0.00,VWS V14.01,2014-07-28 16:13:00,
2014-07-28 11:14:00,74.4,61.9,30.00,NNE,14,1.0,7.0,65,0.00,,---,0.00,VWS V14.01,2014-07-28 16:14:00,
2014-07-28 11:15:00,74.4,62.7,30.00,North,11,1.0,7.0,67,0.00,,---,0.00,VWS V14.01,2014-07-28 16:15:00,
2014-07-28 11:16:00,74.4,62.3,30.00,West,272,0.0,2.0,66,0.00,,---,0.00,VWS V14.01,2014-07-28 16:16:00,
2014-07-28 11:17:00,74.4,64.4,30.00,North,357,0.0,5.0,71,0.00,,---,0.00,VWS V14.01,2014-07-28 16:17:00,
2014-07-28 11:18:00,74.4,62.7,30.00,North,356,3.0,5.0,67,0.00,,---,0.00,VWS V14.01,2014-07-28 16:18:00,
2014-07-28 11:19:00,74.4,62.3,30.00,WNW,283,0.0,5.0,66,0.00,,---,0.00,VWS V14.01,2014-07-28 16:19:00,
2014-07-28 11:20:00,74.4,62.3,30.00,North,358,0.0,5.0,66,0.00,,---,0.00,VWS V14.01,2014-07-28 16:20:00,
2014-07-28 11:21:00,74.4,62.3,30.00,WNW,283,6.0,6.0,66,0.00,,---,0.00,VWS V14.01,2014-07-28 16:21:00,
2014-07-28 11:22:00,74.6,62.5,30.00,North,358,2.0,7.0,66,0.00,,---,0.00,VWS V14.01,2014-07-28 16:22:00,
2014-07-28 11:23:00,74.2,61.7,30.00,NE,34,0.0,6.0,65,0.00,,---,0.00,VWS V14.01,2014-07-28 16:23:00,
2014-07-28 11:24:00,74.2,62.1,30.00,NNE,20,2.0,6.0,66,0.00,,---,0.00,VWS V14.01,2014-07-28 16:24:00,
2014-07-28 11:25:00,74.0,61.9,30.00,NNE,16,0.0,6.0,66,0.00,,---,0.00,VWS V14.01,2014-07-28 16:25:00,
2014-07-28 11:26:00,74.0,62.4,30.00,North,354,4.0,6.0,67,0.00,,---,0.00,VWS V14.01,2014-07-28 16:26:00,
2014-07-28 11:27:00,74.4,62.7,30.00,North,356,3.0,5.0,67,0.00,,---,0.00,VWS V14.01,2014-07-28 16:27:00,
2014-07-28 11:28:00,74.2,62.1,30.00,ENE,66,3.0,6.0,66,0.00,,---,0.00,VWS V14.01,2014-07-28 16:28:00,
2014-07-28 11:29:00,74.2,62.5,30.00,NE,39,0.0,6.0,67,0.00,,---,0.00,VWS V14.01,2014-07-28 16:29:00,
2014-07-28 11:30:00,74.4,62.7,30.00,North,5,3.0,6.0,67,0.00,,---,0.00,VWS V14.01,2014-07-28 16:30:00,
2014-07-28 11:31:00,74.4,62.3,30.00,North,10,0.0,2.0,66,0.00,,---,0.00,VWS V14.01,2014-07-28 16:31:00,
2014-07-28 11:32:00,74.2,61.7,30.00,NE,35,2.0,6.0,65,0.00,,---,0.00,VWS V14.01,2014-07-28 16:32:00,
2014-07-28 11:33:00,74.4,61.9,30.00,WSW,239,3.0,4.0,65,0.00,,---,0.00,VWS V14.01,2014-07-28 16:33:00,
2014-07-28 11:34:00,74.6,62.9,30.00,NNE,20,0.0,4.0,67,0.00,,---,0.00,VWS V14.01,2014-07-28 16:34:00,
2014-07-28 11:35:00,74.6,62.9,30.00,ENE,60,3.0,4.0,67,0.00,,---,0.00,VWS V14.01,2014-07-28 16:35:00,
2014-07-28 11:36:00,74.7,62.6,30.00,NNW,333,0.0,3.0,66,0.00,,---,0.00,VWS V14.01,2014-07-28 16:36:00,
2014-07-28 11:37:00,74.2,62.1,30.00,ENE,66,3.0,6.0,66,0.00,,---,0.00,VWS V14.01,2014-07-28 16:37:00,
2014-07-28 11:38:00,74.7,61.3,30.00,NNW,346,3.0,5.0,63,0.00,,---,0.00,VWS V14.01,2014-07-28 16:38:00,
2014-07-28 11:39:00,74.7,61.3,30.00,NNW,345,0.0,5.0,63,0.00,,---,0.00,VWS V14.01,2014-07-28 16:39:00,
2014-07-28 11:40:00,74.6,61.6,30.00,NW,307,2.0,5.0,64,0.00,,---,0.00,VWS V14.01,2014-07-28 16:40:00,
2014-07-28 11:41:00,74.6,61.6,30.00,NW,313,0.0,1.0,64,0.00,,---,0.00,VWS V14.01,2014-07-28 16:41:00,
2014-07-28 11:42:00,74.4,61.9,30.00,WSW,239,3.0,4.0,65,0.00,,---,0.00,VWS V14.01,2014-07-28 16:42:00,
2014-07-28 11:43:00,74.6,62.1,30.00,North,0,0.0,6.0,65,0.00,,---,0.00,VWS V14.01,2014-07-28 16:43:00,
2014-07-28 11:44:00,74.6,62.5,30.00,North,0,0.0,6.0,66,0.00,,---,0.00,VWS V14.01,2014-07-28 16:44:00,
2014-07-28 11:45:00,74.7,63.0,30.00,North,0,0.0,6.0,67,0.00,,---,0.00,VWS V14.01,2014-07-28 16:45:00,
2014-07-28 11:46:00,74.7,63.0,30.00,North,5,0.0,4.0,67,0.00,,---,0.00,VWS V14.01,2014-07-28 16:46:00,
2014-07-28 11:47:00,74.7,61.3,30.00,NNW,347,2.0,5.0,63,0.00,,---,0.00,VWS V14.01,2014-07-28 16:47:00,
2014-07-28 11:48:00,75.1,63.0,30.00,NNW,344,5.0,5.0,66,0.00,,---,0.00,VWS V14.01,2014-07-28 16:48:00,
2014-07-28 11:49:00,75.4,62.4,30.00,North,0,5.0,5.0,64,0.00,,---,0.00,VWS V14.01,2014-07-28 16:49:00,
2014-07-28 11:50:00,75.6,61.7,30.00,ENE,63,0.0,5.0,62,0.00,,---,0.00,VWS V14.01,2014-07-28 16:50:00,
2014-07-28 11:51:00,75.6,61.7,30.00,NE,56,0.0,2.0,62,0.00,,---,0.00,VWS V14.01,2014-07-28 16:51:00,
2014-07-28 11:52:00,74.6,62.1,30.00,North,0,0.0,6.0,65,0.00,,---,0.00,VWS V14.01,2014-07-28 16:52:00,
2014-07-28 11:53:00,75.8,61.9,30.00,NNE,20,0.0,4.0,62,0.00,,---,0.00,VWS V14.01,2014-07-28 16:53:00,
2014-07-28 11:54:00,75.8,61.4,30.00,NNE,13,0.0,4.0,61,0.00,,---,0.00,VWS V14.01,2014-07-28 16:54:00,
2014-07-28 11:55:00,75.8,62.8,30.00,North,0,2.0,6.0,64,0.00,,---,0.00,VWS V14.01,2014-07-28 16:55:00,
2014-07-28 11:56:00,75.8,62.3,30.00,North,358,3.0,3.0,63,0.00,,---,0.00,VWS V14.01,2014-07-28 16:56:00,
2014-07-28 11:57:00,75.1,63.0,30.00,NNW,344,5.0,5.0,66,0.00,,---,0.00,VWS V14.01,2014-07-28 16:57:00,
2014-07-28 11:58:00,75.8,62.3,30.00,NE,36,2.0,5.0,63,0.00,,---,0.00,VWS V14.01,2014-07-28 16:58:00,
2014-07-28 11:59:00,75.8,61.4,30.00,NNE,23,1.0,5.0,61,0.00,,---,0.00,VWS V14.01,2014-07-28 16:59:00,
2014-07-28 12:00:00,75.8,61.4,30.00,North,358,0.0,6.0,61,0.00,,---,0.00,VWS V14.01,2014-07-28 17:00:00,
2014-07-28 12:01:00,75.8,64.1,30.00,North,358,5.0,5.0,67,0.00,,---,0.00,VWS V14.01,2014-07-28 17:01:00,
2014-07-28 12:02:00,75.8,61.9,30.00,NNE,20,0.0,4.0,62,0.00,,---,0.00,VWS V14.01,2014-07-28 17:02:00,
2014-07-28 12:03:00,76.0,62.0,30.00,NW,314,9.0,9.0,62,0.00,,---,0.00,VWS V14.01,2014-07-28 17:03:00,
2014-07-28 12:04:00,76.0,62.0,30.00,NNE,16,2.0,9.0,62,0.00,,---,0.00,VWS V14.01,2014-07-28 17:04:00,
2014-07-28 12:05:00,76.1,62.6,30.00,NNE,19,2.0,9.0,63,0.00,,---,0.00,VWS V14.01,2014-07-28 17:05:00,
2014-07-28 12:06:00,76.3,63.2,30.00,WNW,299,0.0,2.0,64,0.00,,---,0.00,VWS V14.01,2014-07-28 17:06:00,
2014-07-28 12:07:00,75.8,62.3,30.00,NE,36,2.0,5.0,63,0.00,,---,0.00,VWS V14.01,2014-07-28 17:07:00,
2014-07-28 12:08:00,76.7,62.7,30.00,North,358,0.0,2.0,62,0.00,,---,0.00,VWS V14.01,2014-07-28 17:08:00,
2014-07-28 12:09:00,76.7,63.2,30.00,NNE,32,1.0,2.0,63,0.00,,---,0.00,VWS V14.01,2014-07-28 17:09:00,
2014-07-28 12:10:00,76.7,61.3,30.00,NW,320,2.0,6.0,59,0.00,,---,0.00,VWS V14.01,2014-07-28 17:10:00,
2014-07-28 12:11:00,76.8,61.4,30.00,North,358,5.0,5.0,59,0.00,,---,0.00,VWS V14.01,2014-07-28 17:11:00,
2014-07-28 12:12:00,76.0,62.0,30.00,NW,314,9.0,9.0,62,0.00,,---,0.00,VWS V14.01,2014-07-28 17:12:00,
2014-07-28 12:13:00,76.7,62.7,30.00,WSW,255,4.0,5.0,62,0.00,,---,0.00,VWS V14.01,2014-07-28 17:13:00,
2014-07-28 12:14:00,76.7,61.8,30.00,NNW,345,5.0,5.0,60,0.00,,---,0.00,VWS V14.01,2014-07-28 17:14:00,
2014-07-28 12:15:00,76.7,61.3,30.00,NNE,20,3.0,5.0,59,0.00,,---,0.00,VWS V14.01,2014-07-28 17:15:00,
2014-07-28 12:16:00,76.7,62.2,30.00,North,358,2.0,3.0,61,0.00,,---,0.00,VWS V14.01,2014-07-28 17:16:00,
2014-07-28 12:17:00,76.7,62.7,30.00,North,358,0.0,2.0,62,0.00,,---,0.00,VWS V14.01,2014-07-28 17:17:00,
2014-07-28 12:18:00,76.7,61.3,30.00,SSW,209,0.0,3.0,59,0.00,,---,0.00,VWS V14.01,2014-07-28 17:18:00,
2014-07-28 12:19:00,76.7,62.2,30.00,NNE,20,1.0,3.0,61,0.00,,---,0.00,VWS V14.01,2014-07-28 17:19:00,
2014-07-28 12:20:00,76.7,62.2,30.00,North,354,6.0,6.0,61,0.00,,---,0.00,VWS V14.01,2014-07-28 17:20:00,
2014-07-28 12:21:00,76.7,61.8,30.00,North,356,2.0,7.0,60,0.00,,---,0.00,VWS V14.01,2014-07-28 17:21:00,
2014-07-28 12:22:00,76.7,62.7,30.00,NNE,32,4.0,10.0,62,0.00,,---,0.00,VWS V14.01,2014-07-28 17:22:00,
2014-07-28 12:23:00,76.7,61.8,30.00,NE,39,3.0,5.0,60,0.00,,---,0.00,VWS V14.01,2014-07-28 17:23:00,
2014-07-28 12:24:00,76.8,61.4,30.00,North,3,0.0,10.0,59,0.00,,---,0.00,VWS V14.01,2014-07-28 17:24:00,
2014-07-28 12:25:00,76.8,62.8,30.00,NNW,338,0.0,10.0,62,0.00,,---,0.00,VWS V14.01,2014-07-28 17:25:00,
2014-07-28 12:26:00,77.0,63.0,30.00,NNE,32,0.0,0.0,62,0.00,,---,0.00,VWS V14.01,2014-07-28 17:26:00,
2014-07-28 12:27:00,77.0,62.5,30.00,WSW,250,0.0,1.0,61,0.00,,---,0.00,VWS V14.01,2014-07-28 17:27:00,
2014-07-28 12:28:00,76.7,62.2,30.00,NNE,20,1.0,3.0,61,0.00,,---,0.00,VWS V14.01,2014-07-28 17:28:00,
2014-07-28 12:29:00,77.0,62.5,30.00,North,0,0.0,5.0,61,0.00,,---,0.00,VWS V14.01,2014-07-28 17:29:00,
2014-07-28 12:30:00,77.0,62.5,29.99,West,270,3.0,5.0,61,0.00,,---,0.00,VWS V14.01,2014-07-28 17:30:00,
2014-07-28 12:31:00,76.8,61.9,29.99,North,4,3.0,3.0,60,0.00,,---,0.00,VWS V14.01,2014-07-28 17:31:00,
2014-07-28 12:32:00,76.8,61.9,29.99,North,357,2.0,3.0,60,0.00,,---,0.00,VWS V14.01,2014-07-28 17:32:00,
2014-07-28 12:33:00,76.8,61.4,30.00,North,3,0.0,10.0,59,0.00,,---,0.00,VWS V14.01,2014-07-28 17:33:00,
2014-07-28 12:34:00,76.5,61.6,29.99,NW,324,5.0,9.0,60,0.00,,---,0.00,VWS V14.01,2014-07-28 17:34:00,
2014-07-28 12:35:00,76.3,61.4,29.99,NNW,338,4.0,9.0,60,0.00,,---,0.00,VWS V14.01,2014-07-28 17:35:00,
2014-07-28 12:36:00,76.3,61.9,29.99,NNW,327,2.0,4.0,61,0.00,,---,0.00,VWS V14.01,2014-07-28 17:36:00,
2014-07-28 12:37:00,76.1,61.2,29.99,NNE,25,0.0,4.0,60,0.00,,---,0.00,VWS V14.01,2014-07-28 17:37:00,
2014-07-28 12:38:00,77.0,61.6,30.00,North,0,0.0,5.0,59,0.00,,---,0.00,VWS V14.01,2014-07-28 17:38:00,
2014-07-28 12:39:00,76.1,62.2,29.99,South,190,0.0,4.0,62,0.00,,---,0.00,VWS V14.01,2014-07-28 17:39:00,
2014-07-28 12:40:00,76.1,62.2,29.99,NW,305,0.0,4.0,62,0.00,,---,0.00,VWS V14.01,2014-07-28 17:40:00,
2014-07-28 12:41:00,76.1,62.6,29.99,NNE,15,0.0,1.0,63,0.00,,---,0.00,VWS V14.01,2014-07-28 17:41:00,
2014-07-28 12:42:00,76.3,61.9,29.99,WSW,251,0.0,1.0,61,0.00,,---,0.00,VWS V14.01,2014-07-28 17:42:00,
2014-07-28 12:43:00,76.5,62.1,29.99,North,4,4.0,4.0,61,0.00,,---,0.00,VWS V14.01,2014-07-28 17:43:00,
2014-07-28 12:44:00,76.5,61.6,29.99,NW,324,5.0,9.0,60,0.00,,---,0.00,VWS V14.01,2014-07-28 17:44:00,
2014-07-28 12:45:00,76.5,62.1,29.99,West,269,0.0,6.0,61,0.00,,---,0.00,VWS V14.01,2014-07-28 17:45:00,
2014-07-28 12:46:00,76.5,61.6,29.99,North,0,0.0,1.0,60,0.00,,---,0.00,VWS V14.01,2014-07-28 17:46:00,
2014-07-28 12:47:00,76.7,62.7,29.99,North,0,0.0,1.0,62,0.00,,---,0.00,VWS V14.01,2014-07-28 17:47:00,
2014-07-28 12:48:00,76.7,61.8,29.99,North,0,0.0,1.0,60,0.00,,---,0.00,VWS V14.01,2014-07-28 17:48:00,
2014-07-28 12:49:00,76.1,62.2,29.99,South,190,0.0,4.0,62,0.00,,---,0.00,VWS V14.01,2014-07-28 17:49:00,
2014-07-28 12:50:00,76.7,61.3,29.99,West,266,0.0,1.0,59,0.00,,---,0.00,VWS V14.01,2014-07-28 17:50:00,
2014-07-28 12:51:00,76.8,62.3,29.99,NNW,329,3.0,4.0,61,0.00,,---,0.00,VWS V14.01,2014-07-28 17:51:00,
2014-07-28 12:52:00,76.8,62.8,29.99,NNW,329,0.0,4.0,62,0.00,,---,0.00,VWS V14.01,2014-07-28 17:52:00,
2014-07-28 12:53:00,76.8,61.9,29.99,WSW,245,3.0,4.0,60,0.00,,---,0.00,VWS V14.01,2014-07-28 17:53:00,
2014-07-28 12:54:00,76.5,61.1,29.99,NNE,19,2.0,6.0,59,0.00,,---,0.00,VWS V14.01,2014-07-28 17:54:00,
2014-07-28 12:55:00,76.7,61.8,29.99,WSW,243,3.0,4.0,60,0.00,,---,0.00,VWS V14.01,2014-07-28 17:55:00,
2014-07-28 12:56:00,76.7,61.3,29.99,NNE,13,6.0,6.0,59,0.00,,---,0.00,VWS V14.01,2014-07-28 17:56:00,
2014-07-28 12:57:00,76.7,61.3,29.99,NNE,32,5.0,6.0,59,0.00,,---,0.00,VWS V14.01,2014-07-28 17:57:00,
2014-07-28 12:58:00,76.8,62.8,29.99,North,0,2.0,6.0,62,0.00,,---,0.00,VWS V14.01,2014-07-28 17:58:00,
2014-07-28 12:59:00,76.7,61.3,29.99,West,266,0.0,1.0,59,0.00,,---,0.00,VWS V14.01,2014-07-28 17:59:00,
2014-07-28 13:00:00,77.0,61.6,29.99,North,10,4.0,6.0,59,0.00,,---,0.00,VWS V14.01,2014-07-28 18:00:00,
2014-07-28 13:01:00,77.2,61.8,29.99,NNE,19,1.0,4.0,59,0.00,,---,0.00,VWS V14.01,2014-07-28 18:01:00,
2014-07-28 13:02:00,77.2,62.2,29.99,North,1,3.0,4.0,60,0.00,,---,0.00,VWS V14.01,2014-07-28 18:02:00,
2014-07-28 13:03:00,77.2,61.3,29.99,North,1,1.0,4.0,58,0.00,,---,0.00,VWS V14.01,2014-07-28 18:03:00,
2014-07-28 13:04:00,76.7,61.3,29.99,North,356,4.0,4.0,59,0.00,,---,0.00,VWS V14.01,2014-07-28 18:04:00,
2014-07-28 13:05:00,77.2,62.2,29.99,WNW,293,0.0,4.0,60,0.00,,---,0.00,VWS V14.01,2014-07-28 18:05:00,
2014-07-28 13:06:00,77.4,63.8,29.99,NNW,337,5.0,5.0,63,0.00,,---,0.00,VWS V14.01,2014-07-28 18:06:00,
2014-07-28 13:07:00,77.4,63.4,29.99,SW,221,0.0,5.0,62,0.00,,---,0.00,VWS V14.01,2014-07-28 18:07:00,
2014-07-28 13:08:00,77.7,63.7,29.99,North,0,7.0,7.0,62,0.00,,---,0.00,VWS V14.01,2014-07-28 18:08:00,
2014-07-28 13:09:00,76.8,62.8,29.99,NNW,347,0.0,6.0,62,0.00,,---,0.00,VWS V14.01,2014-07-28 18:09:00,
2014-07-28 13:10:00,77.9,61.5,29.99,NNE,18,3.0,8.0,57,0.00,,---,0.00,VWS V14.01,2014-07-28 18:10:00,
2014-07-28 13:11:00,77.9,61.5,29.99,WNW,293,0.0,5.0,57,0.00,,---,0.00,VWS V14.01,2014-07-28 18:11:00,
2014-07-28 13:12:00,78.1,61.6,29.99,NNE,16,2.0,5.0,57,0.00,,---,0.00,VWS V14.01,2014-07-28 18:12:00,
2014-07-28 13:13:00,78.1,62.6,29.99,WSW,242,2.0,5.0,59,0.00,,---,0.00,VWS V14.01,2014-07-28 18:13:00,
2014-07-28 13:14:00,77.2,61.8,29.99,SW,230,4.0,4.0,59,0.00,,---,0.00,VWS V14.01,2014-07-28 18:14:00,
2014-07-28 13:15:00,78.1,62.1,29.99,NNW,327,3.0,6.0,58,0.00,,---,0.00,VWS V14.01,2014-07-28 18:15:00,
2014-07-28 13:16:00,77.9,62.0,29.99,NE,41,2.0,3.0,58,0.00,,---,0.00,VWS V14.01,2014-07-28 18:16:00,
2014-07-28 13:17:00,77.9,61.5,29.99,North,0,3.0,6.0,57,0.00,,---,0.00,VWS V14.01,2014-07-28 18:17:00,
2014-07-28 13:18:00,77.7,62.2,29.99,North,5,6.0,7.0,59,0.00,,---,0.00,VWS V14.01,2014-07-28 18:18:00,
2014-07-28 13:19:00,77.7,62.2,29.99,NE,36,0.0,6.0,59,0.00,,---,0.00,VWS V14.01,2014-07-28 18:19:00,
2014-07-28 13:20:00,77.6,62.2,29.99,NE,34,0.0,6.0,59,0.00,,---,0.00,VWS V14.01,2014-07-28 18:20:00,
2014-07-28 13:21:00,77.6,62.2,29.99,ENE,63,0.0,3.0,59,0.00,,---,0.00,VWS V14.01,2014-07-28 18:21:00,
2014-07-28 13:22:00,77.4,62.0,29.99,NNE,24,4.0,4.0,59,0.00,,---,0.00,VWS V14.01,2014-07-28 18:22:00,
2014-07-28 13:23:00,78.1,62.6,29.99,NNW,331,3.0,5.0,59,0.00,,---,0.00,VWS V14.01,2014-07-28 18:23:00,
2014-07-28 13:24:00,77.0,61.6,29.99,NNW,328,3.0,5.0,59,0.00,,---,0.00,VWS V14.01,2014-07-28 18:24:00,
2014-07-28 13:25:00,76.7,60.8,29.99,WNW,303,0.0,6.0,58,0.00,,---,0.00,VWS V14.01,2014-07-28 18:25:00,
2014-07-28 13:26:00,76.5,61.1,29.99,NNE,18,2.0,4.0,59,0.00,,---,0.00,VWS V14.01,2014-07-28 18:26:00,
2014-07-28 13:27:00,76.3,60.9,29.99,NNE,18,0.0,4.0,59,0.00,,---,0.00,VWS V14.01,2014-07-28 18:27:00,
2014-07-28 13:28:00,77.7,62.2,29.99,NE,36,0.0,6.0,59,0.00,,---,0.00,VWS V14.01,2014-07-28 18:28:00,
2014-07-28 13:29:00,76.1,61.7,29.99,NE,44,3.0,4.0,61,0.00,,---,0.00,VWS V14.01,2014-07-28 18:29:00,
2014-07-28 13:30:00,76.0,61.1,29.99,North,0,2.0,5.0,60,0.00,,---,0.00,VWS V14.01,2014-07-28 18:30:00,
2014-07-28 13:31:00,75.8,60.9,29.99,North,0,0.0,0.0,60,0.00,,---,0.00,VWS V14.01,2014-07-28 18:31:00,
2014-07-28 13:32:00,75.8,61.4,29.99,NNW,339,0.0,2.0,61,0.00,,---,0.00,VWS V14.01,2014-07-28 18:32:00,
2014-07-28 13:33:00,76.0,62.0,29.99,NNW,339,0.0,2.0,62,0.00,,---,0.00,VWS V14.01,2014-07-28 18:33:00,
2014-07-28 13:34:00,77.0,61.6,29.99,NNW,328,3.0,5.0,59,0.00,,---,0.00,VWS V14.01,2014-07-28 18:34:00,
2014-07-28 13:35:00,76.3,62.3,29.99,North,355,4.0,4.0,62,0.00,,---,0.00,VWS V14.01,2014-07-28 18:35:00,
2014-07-28 13:36:00,76.5,61.6,29.99,NNW,337,1.0,4.0,60,0.00,,---,0.00,VWS V14.01,2014-07-28 18:36:00,
2014-07-28 13:37:00,76.8,61.9,29.99,WNW,300,0.0,4.0,60,0.00,,---,0.00,VWS V14.01,2014-07-28 18:37:00,
2014-07-28 13:38:00,76.8,61.4,29.99,NNE,22,0.0,4.0,59,0.00,,---,0.00,VWS V14.01,2014-07-28 18:38:00,
2014-07-28 13:39:00,76.1,61.7,29.99,NE,44,3.0,4.0,61,0.00,,---,0.00,VWS V14.01,2014-07-28 18:39:00,
2014-07-28 13:40:00,77.2,62.7,29.99,NE,41,3.0,10.0,61,0.00,,---,0.00,VWS V14.01,2014-07-28 18:40:00,
2014-07-28 13:41:00,77.2,60.8,29.99,NNW,335,4.0,6.0,57,0.00,,---,0.00,VWS V14.01,2014-07-28 18:41:00,
2014-07-28 13:42:00,77.0,60.6,29.99,NE,37,3.0,6.0,57,0.00,,---,0.00,VWS V14.01,2014-07-28 18:42:00,
2014-07-28 13:43:00,77.0,61.1,29.99,North,0,1.0,6.0,58,0.00,,---,0.00,VWS V14.01,2014-07-28 18:43:00,
2014-07-28 13:44:00,76.1,62.2,29.99,NNW,338,0.0,2.0,62,0.00,,---,0.00,VWS V14.01,2014-07-28 18:44:00,
2014-07-28 13:45:00,76.8,61.4,29.98,North,349,1.0,6.0,59,0.00,,---,0.00,VWS V14.01,2014-07-28 18:45:00,
2014-07-28 13:46:00,76.8,61.9,29.98,North,349,0.0,0.0,60,0.00,,---,0.00,VWS V14.01,2014-07-28 18:46:00,
2014-07-28 13:47:00,76.8,62.8,29.98,North,349,1.0,1.0,62,0.00,,---,0.00,VWS V14.01,2014-07-28 18:47:00,
2014-07-28 13:48:00,76.8,61.4,29.98,West,272,3.0,4.0,59,0.00,,---,0.00,VWS V14.01,2014-07-28 18:48:00,
2014-07-28 13:49:00,77.0,62.5,29.99,North,353,6.0,6.0,61,0.00,,---,0.00,VWS V14.01,2014-07-28 18:49:00,
2014-07-28 13:50:00,76.8,61.9,29.98,NNW,342,1.0,4.0,60,0.00,,---,0.00,VWS V14.01,2014-07-28 18:50:00,
2014-07-28 13:51:00,76.8,61.9,29.98,East,95,5.0,11.0,60,0.00,,---,0.00,VWS V14.01,2014-07-28 18:51:00,
2014-07-28 13:52:00,77.0,62.1,29.98,NNW,345,3.0,11.0,60,0.00,,---,0.00,VWS V14.01,2014-07-28 18:52:00,
2014-07-28 13:53:00,77.2,62.7,29.98,North,11,1.0,11.0,61,0.00,,---,0.00,VWS V14.01,2014-07-28 18:53:00,
2014-07-28 13:54:00,76.8,60.9,29.99,North,1,3.0,6.0,58,0.00,,---,0.00,VWS V14.01,2014-07-28 18:54:00,
2014-07-28 13:55:00,77.6,62.6,29.98,NE,46,5.0,11.0,60,0.00,,---,0.00,VWS V14.01,2014-07-28 18:55:00,
2014-07-28 13:56:00,77.7,62.7,29.98,North,358,6.0,7.0,60,0.00,,---,0.00,VWS V14.01,2014-07-28 18:56:00,
2014-07-28 13:57:00,77.9,62.4,29.98,NNW,347,4.0,9.0,59,0.00,,---,0.00,VWS V14.01,2014-07-28 18:57:00,
2014-07-28 13:58:00,76.8,62.8,29.98,ENE,58,3.0,4.0,62,0.00,,---,0.00,VWS V14.01,2014-07-28 18:58:00,
2014-07-28 13:59:00,78.1,63.1,29.98,North,358,4.0,9.0,60,0.00,,---,0.00,VWS V14.01,2014-07-28 18:59:00,
2014-07-28 14:00:00,78.1,62.6,29.98,SE,124,0.0,9.0,59,0.00,,---,0.00,VWS V14.01,2014-07-28 19:00:00,
2014-07-28 14:01:00,78.3,64.2,29.98,North,358,0.0,0.0,62,0.00,,---,0.00,VWS V14.01,2014-07-28 19:01:00,
2014-07-28 14:02:00,78.3,62.8,29.98,NNW,347,5.0,5.0,59,0.00,,---,0.00,VWS V14.01,2014-07-28 19:02:00,
2014-07-28 14:03:00,78.3,62.8,29.98,NE,35,3.0,5.0,59,0.00,,---,0.00,VWS V14.01,2014-07-28 19:03:00,
2014-07-28 14:04:00,77.6,62.6,29.98,NE,46,5.0,11.0,60,0.00,,---,0.00,VWS V14.01,2014-07-28 19:04:00,
2014-07-28 14:05:00,78.1,63.6,29.98,North,0,4.0,5.0,61,0.00,,---,0.00,VWS V14.01,2014-07-28 19:05:00,
2014-07-28 14:06:00,78.1,62.6,29.98,NE,37,1.0,4.0,59,0.00,,---,0.00,VWS V14.01,2014-07-28 19:06:00,
2014-07-28 14:07:00,78.1,62.1,29.98,NE,56,4.0,6.0,58,0.00,,---,0.00,VWS V14.01,2014-07-28 19:07:00,
2014-07-28 14:08:00,78.1,62.1,29.98,North,354,1.0,6.0,58,0.00,,---,0.00,VWS V14.01,2014-07-28 19:08:00,
2014-07-28 14:09:00,78.1,62.6,29.98,SE,124,0.0,9.0,59,0.00,,---,0.00,VWS V14.01,2014-07-28 19:09:00,
2014-07-28 14:10:00,78.3,61.8,29.98,South,169,4.0,6.0,57,0.00,,---,0.00,VWS V14.01,2014-07-28 19:10:00,
2014-07-28 14:11:00,78.3,62.3,29.98,North,358,4.0,6.0,58,0.00,,---,0.00,VWS V14.01,2014-07-28 19:11:00,
2014-07-28 14:12:00,78.5,62.0,29.98,NNE,14,2.0,7.0,57,0.00,,---,0.00,VWS V14.01,2014-07-28 19:12:00,
2014-07-28 14:13:00,78.5,61.5,29.98,NNW,346,1.0,7.0,56,0.00,,---,0.00,VWS V14.01,2014-07-28 19:13:00,
2014-07-28 14:14:00,78.1,63.6,29.98,North,1,5.0,5.0,61,0.00,,---,0.00,VWS V14.01,2014-07-28 19:14:00,
2014-07-28 14:15:00,78.6,61.1,29.98,NNE,21,3.0,7.0,55,0.00,,---,0.00,VWS V14.01,2014-07-28 19:15:00,
2014-07-28 14:16:00,78.6,61.1,29.98,WNW,293,2.0,2.0,55,0.00,,---,0.00,VWS V14.01,2014-07-28 19:16:00,
2014-07-28 14:17:00,78.5,60.5,29.98,NNE,20,3.0,3.0,54,0.00,,---,0.00,VWS V14.01,2014-07-28 19:17:00,
2014-07-28 14:18:00,78.5,60.5,29.98,North,11,3.0,5.0,54,0.00,,---,0.00,VWS V14.01,2014-07-28 19:18:00,
2014-07-28 14:19:00,78.3,61.8,29.98,South,169,4.0,6.0,57,0.00,,---,0.00,VWS V14.01,2014-07-28 19:19:00,
2014-07-28 14:20:00,78.3,61.3,29.98,North,358,2.0,6.0,56,0.00,,---,0.00,VWS V14.01,2014-07-28 19:20:00,
2014-07-28 14:21:00,78.3,61.3,29.98,NNE,28,8.0,8.0,56,0.00,,---,0.00,VWS V14.01,2014-07-28 19:21:00,
2014-07-28 14:22:00,78.3,59.8,29.98,WNW,285,1.0,8.0,53,0.00,,---,0.00,VWS V14.01,2014-07-28 19:22:00,
2014-07-28 14:23:00,78.1,59.6,29.98,North,5,1.0,8.0,53,0.00,,---,0.00,VWS V14.01,2014-07-28 19:23:00,
2014-07-28 14:24:00,78.6,61.1,29.98,NNE,21,3.0,7.0,55,0.00,,---,0.00,VWS V14.01,2014-07-28 19:24:00,
2014-07-28 14:25:00,78.1,61.1,29.98,NNW,336,0.0,8.0,56,0.00,,---,0.00,VWS V14.01,2014-07-28 19:25:00,
2014-07-28 14:26:00,78.3,61.3,29.98,NNW,336,0.0,0.0,56,0.00,,---,0.00,VWS V14.01,2014-07-28 19:26:00,
2014-07-28 14:27:00,78.3,61.8,29.98,South,174,3.0,6.0,57,0.00,,---,0.00,VWS V14.01,2014-07-28 19:27:00,
2014-07-28 14:28:00,78.3,60.8,29.98,NW,319,2.0,6.0,55,0.00,,---,0.00,VWS V14.01,2014-07-28 19:28:00,
2014-07-28 14:29:00,78.3,61.3,29.98,North,1,4.0,6.0,56,0.00,,---,0.00,VWS V14.01,2014-07-28 19:29:00,
2014-07-28 14:30:00,78.1,60.6,29.98,NNW,327,1.0,6.0,55,0.00,,---,0.00,VWS V14.01,2014-07-28 19:30:00,
2014-07-28 14:31:00,77.9,60.5,29.98,North,6,4.0,8.0,55,0.00,,---,0.00,VWS V14.01,2014-07-28 19:31:00,
2014-07-28 14:32:00,77.9,59.9,29.98,NNW,328,0.0,8.0,54,0.00,,---,0.00,VWS V14.01,2014-07-28 19:32:00,
2014-07-28 14:33:00,77.7,60.8,29.98,North,358,2.0,8.0,56,0.00,,---,0.00,VWS V14.01,2014-07-28 19:33:00,
2014-07-28 14:34:00,78.1,61.1,29.98,NNW,336,0.0,8.0,56,0.00,,---,0.00,VWS V14.01,2014-07-28 19:34:00,
2014-07-28 14:35:00,77.6,60.7,29.98,NNE,12,0.0,8.0,56,0.00,,---,0.00,VWS V14.01,2014-07-28 19:35:00,
2014-07-28 14:36:00,77.4,61.0,29.98,North,4,3.0,4.0,57,0.00,,---,0.00,VWS V14.01,2014-07-28 19:36:00,
2014-07-28 14:37:00,77.4,61.0,29.98,North,0,2.0,5.0,57,0.00,,---,0.00,VWS V14.01,2014-07-28 19:37:00,
2014-07-28 14:38:00,77.2,60.8,29.98,SE,125,0.0,5.0,57,0.00,,---,0.00,VWS V14.01,2014-07-28 19:38:00,
2014-07-28 14:39:00,77.2,60.8,29.98,WNW,284,0.0,5.0,57,0.00,,---,0.00,VWS V14.01,2014-07-28 19:39:00,
2014-07-28 14:40:00,78.1,60.6,29.98,NNW,327,1.0,6.0,55,0.00,,---,0.00,VWS V14.01,2014-07-28 19:40:00,
2014-07-28 14:41:00,77.0,62.1,29.98,North,0,0.0,0.0,60,0.00,,---,0.00,VWS V14.01,2014-07-28 19:41:00,
2014-07-28 14:42:00,77.0,61.6,29.98,North,0,0.0,0.0,59,0.00,,---,0.00,VWS V14.01,2014-07-28 19:42:00,
2014-07-28 14:43:00,77.0,61.6,29.98,North,0,0.0,0.0,59,0.00,,---,0.00,VWS V14.01,2014-07-28 19:43:00,
2014-07-28 14:44:00,77.6,60.7,29.98,NNE,12,0.0,8.0,56,0.00,,---,0.00,VWS V14.01,2014-07-28 19:44:00,
2014-07-28 14:45:00,77.0,62.1,29.98,NNE,30,2.0,6.0,60,0.00,,---,0.00,VWS V14.01,2014-07-28 19:45:00,
2014-07-28 14:46:00,77.2,60.8,29.98,NNW,338,5.0,6.0,57,0.00,,---,0.00,VWS V14.01,2014-07-28 19:46:00,
2014-07-28 14:47:00,77.4,61.0,29.98,North,5,3.0,6.0,57,0.00,,---,0.00,VWS V14.01,2014-07-28 19:47:00,
2014-07-28 14:48:00,77.6,60.7,29.98,NNW,348,3.0,6.0,56,0.00,,---,0.00,VWS V14.01,2014-07-28 19:48:00,
2014-07-28 14:49:00,77.0,61.6,29.98,North,0,0.0,5.0,59,0.00,,---,0.00,VWS V14.01,2014-07-28 19:49:00,
2014-07-28 14:50:00,77.9,62.0,29.98,NNW,330,4.0,6.0,58,0.00,,---,0.00,VWS V14.01,2014-07-28 19:50:00,
2014-07-28 14:51:00,77.9,60.5,29.98,North,6,0.0,7.0,55,0.00,,---,0.00,VWS V14.01,2014-07-28 19:51:00,
2014-07-28 14:52:00,77.9,61.5,29.98,NNW,334,0.0,7.0,57,0.00,,---,0.00,VWS V14.01,2014-07-28 19:52:00,
2014-07-28 14:53:00,77.9,61.0,29.98,NNE,25,5.0,7.0,56,0.00,,---,0.00,VWS V14.01,2014-07-28 19:53:00,
2014-07-28 14:54:00,77.0,62.1,29.98,NNE,30,2.0,6.0,60,0.00,,---,0.00,VWS V14.01,2014-07-28 19:54:00,
2014-07-28 14:55:00,77.7,60.8,29.98,NE,37,2.0,7.0,56,0.00,,---,0.00,VWS V14.01,2014-07-28 19:55:00,
2014-07-28 14:56:00,77.6,60.7,29.98,North,354,2.0,6.0,56,0.00,,---,0.00,VWS V14.01,2014-07-28 19:56:00,
2014-07-28 14:57:00,77.6,60.7,29.98,North,1,2.0,6.0,56,0.00,,---,0.00,VWS V14.01,2014-07-28 19:57:00,
2014-07-28 14:58:00,77.4,60.5,29.98,North,4,7.0,7.0,56,0.00,,---,0.00,VWS V14.01,2014-07-28 19:58:00,
2014-07-28 14:59:00,77.9,62.0,29.98,North,8,6.0,6.0,58,0.00,,---,0.00,VWS V14.01,2014-07-28 19:59:00,
2014-07-28 15:00:00,77.0,61.1,29.98,NNW,329,2.0,7.0,58,0.00,,---,0.00,VWS V14.01,2014-07-28 20:00:00,
2014-07-28 15:01:00,77.0,61.6,29.98,NNE,15,2.0,5.0,59,0.00,,---,0.00,VWS V14.01,2014-07-28 20:01:00,
2014-07-28 15:02:00,77.0,61.1,29.98,North,3,6.0,9.0,58,0.00,,---,0.00,VWS V14.01,2014-07-28 20:02:00,
2014-07-28 15:03:00,76.8,60.9,29.98,NW,319,2.0,9.0,58,0.00,,---,0.00,VWS V14.01,2014-07-28 20:03:00,
2014-07-28 15:04:00,76.8,60.9,29.98,North,349,3.0,9.0,58,0.00,,---,0.00,VWS V14.01,2014-07-28 20:04:00,
2014-07-28 15:05:00,76.8,61.9,29.98,NNW,344,0.0,9.0,60,0.00,,---,0.00,VWS V14.01,2014-07-28 20:05:00,
2014-07-28 15:06:00,77.6,60.7,29.98,North,354,2.0,6.0,56,0.00,,---,0.00,VWS V14.01,2014-07-28 20:06:00,
2014-07-28 15:07:00,77.0,60.1,29.98,North,357,3.0,6.0,56,0.00,,---,0.00,VWS V14.01,2014-07-28 20:07:00,
2014-07-28 15:08:00,77.0,60.1,29.98,NNW,345,1.0,6.0,56,0.00,,---,0.00,VWS V14.01,2014-07-28 20:08:00,
2014-07-28 15:09:00,77.0,61.1,29.98,NNE,27,4.0,6.0,58,0.00,,---,0.00,VWS V14.01,2014-07-28 20:09:00,
2014-07-28 15:10:00,77.0,61.6,29.98,NNE,15,2.0,5.0,59,0.00,,---,0.00,VWS V14.01,2014-07-28 20:10:00,
2014-07-28 15:11:00,77.0,61.1,29.98,West,266,5.0,9.0,58,0.00,,---,0.00,VWS V14.01,2014-07-28 20:11:00,
2014-07-28 15:12:00,76.8,60.9,29.98,North,0,2.0,9.0,58,0.00,,---,0.00,VWS V14.01,2014-07-28 20:12:00,
2014-07-28 15:13:00,76.8,60.9,29.98,North,0,4.0,9.0,58,0.00,,---,0.00,VWS V14.01,2014-07-28 20:13:00,
2014-07-28 15:14:00,76.7,61.3,29.98,North,356,4.0,9.0,59,0.00,,---,0.00,VWS V14.01,2014-07-28 20:14:00,
2014-07-28 15:15:00,77.0,62.1,29.98,North,352,4.0,6.0,60,0.00,,---,0.00,VWS V14.01,2014-07-28 20:15:00,
2014-07-28 15:16:00,76.5,60.2,29.98,NNE,19,2.0,8.0,57,0.00,,---,0.00,VWS V14.01,2014-07-28 20:16:00,
2014-07-28 15:17:00,76.3,60.5,29.98,NE,49,3.0,8.0,58,0.00,,---,0.00,VWS V14.01,2014-07-28 20:17:00,
2014-07-28 15:18:00,76.3,60.9,29.98,NNW,328,4.0,8.0,59,0.00,,---,0.00,VWS V14.01,2014-07-28 20:18:00,
2014-07-28 15:19:00,76.3,60.9,29.98,North,0,2.0,8.0,59,0.00,,---,0.00,VWS V14.01,2014-07-28 20:19:00,
2014-07-28 15:20:00,77.0,61.1,29.98,NW,307,9.0,9.0,58,0.00,,---,0.00,VWS V14.01,2014-07-28 20:20:00,
2014-07-28 15:21:00,76.5,61.1,29.98,WNW,297,4.0,6.0,59,0.00,,---,0.00,VWS V14.01,2014-07-28 20:21:00,
2014-07-28 15:22:00,76.7,61.3,29.98,NE,39,0.0,6.0,59,0.00,,---,0.00,VWS V14.01,2014-07-28 20:22:00,
2014-07-28 15:23:00,77.0,62.5,29.98,NNE,15,4.0,6.0,61,0.00,,---,0.00,VWS V14.01,2014-07-28 20:23:00,
2014-07-28 15:24:00,77.2,62.7,29.98,South,174,2.0,10.0,61,0.00,,---,0.00,VWS V14.01,2014-07-28 20:24:00,
2014-07-28 15:25:00,76.5,60.2,29.98,NNE,19,2.0,8.0,57,0.00,,---,0.00,VWS V14.01,2014-07-28 20:25:00,
2014-07-28 15:26:00,77.6,60.7,29.98,ENE,63,2.0,6.0,56,0.00,,---,0.00,VWS V14.01,2014-07-28 20:26:00,
2014-07-28 15:27:00,77.7,60.3,29.98,North,8,0.0,6.0,55,0.00,,---,0.00,VWS V14.01,2014-07-28 20:27:00,
2014-07-28 15:28:00,77.9,61.0,29.98,WNW,296,0.0,6.0,56,0.00,,---,0.00,VWS V14.01,2014-07-28 20:28:00,
2014-07-28 15:29:00,78.1,61.1,29.98,NNE,25,0.0,6.0,56,0.00,,---,0.00,VWS V14.01,2014-07-28 20:29:00,
2014-07-28 15:30:00,76.5,61.1,29.98,WNW,297,4.0,6.0,59,0.00,,---,0.00,VWS V14.01,2014-07-28 20:30:00,
2014-07-28 15:31:00,78.1,60.1,29.97,NNE,20,6.0,8.0,54,0.00,,---,0.00,VWS V14.01,2014-07-28 20:31:00,
2014-07-28 15:32:00,78.1,59.6,29.97,SSW,207,0.0,8.0,53,0.00,,---,0.00,VWS V14.01,2014-07-28 20:32:00,
2014-07-28 15:33:00,78.1,60.6,29.97,WNW,283,1.0,8.0,55,0.00,,---,0.00,VWS V14.01,2014-07-28 20:33:00,
2014-07-28 15:34:00,78.1,61.1,29.97,WSW,252,0.0,8.0,56,0.00,,---,0.00,VWS V14.01,2014-07-28 20:34:00,
2014-07-28 15:35:00,78.1,61.1,29.97,WSW,250,0.0,8.0,56,0.00,,---,0.00,VWS V14.01,2014-07-28 20:35:00,
2014-07-28 15:36:00,78.3,61.3,29.97,NNE,26,2.0,4.0,56,0.00,,---,0.00,VWS V14.01,2014-07-28 20:36:00,
2014-07-28 15:37:00,77.9,61.0,29.98,WNW,296,0.0,6.0,56,0.00,,---,0.00,VWS V14.01,2014-07-28 20:37:00,
2014-07-28 15:38:00,78.3,60.3,29.97,NNW,341,2.0,6.0,54,0.00,,---,0.00,VWS V14.01,2014-07-28 20:38:00,
2014-07-28 15:39:00,78.3,61.3,29.97,NNW,338,0.0,6.0,56,0.00,,---,0.00,VWS V14.01,2014-07-28 20:39:00,
2014-07-28 15:40:00,78.3,60.8,29.97,West,266,2.0,6.0,55,0.00,,---,0.00,VWS V14.01,2014-07-28 20:40:00,
2014-07-28 15:41:00,78.3,60.8,29.97,North,357,2.0,2.0,55,0.00,,---,0.00,VWS V14.01,2014-07-28 20:41:00,
2014-07-28 15:42:00,78.3,60.8,29.97,NW,309,4.0,10.0,55,0.00,,---,0.00,VWS V14.01,2014-07-28 20:42:00,
2014-07-28 15:43:00,78.3,60.3,29.97,NNE,21,1.0,10.0,54,0.00,,---,0.00,VWS V14.01,2014-07-28 20:43:00,
2014-07-28 15:44:00,78.1,59.6,29.97,NW,309,4.0,10.0,53,0.00,,---,0.00,VWS V14.01,2014-07-28 20:44:00,
2014-07-28 15:45:00,78.1,61.1,29.97,WSW,250,0.0,8.0,56,0.00,,---,0.00,VWS V14.01,2014-07-28 20:45:00,
2014-07-28 15:46:00,77.9,59.4,29.98,NNW,347,5.0,7.0,53,0.00,,---,0.00,VWS V14.01,2014-07-28 20:46:00,
2014-07-28 15:47:00,77.7,59.2,29.98,WNW,296,3.0,7.0,53,0.00,,---,0.00,VWS V14.01,2014-07-28 20:47:00,
2014-07-28 15:48:00,77.6,60.2,29.98,North,356,3.0,7.0,55,0.00,,---,0.00,VWS V14.01,2014-07-28 20:48:00,
2014-07-28 15:49:00,77.6,60.2,29.98,NNW,342,2.0,7.0,55,0.00,,---,0.00,VWS V14.01,2014-07-28 20:49:00,
2014-07-28 15:50:00,78.3,60.8,29.97,West,266,2.0,6.0,55,0.00,,---,0.00,VWS V14.01,2014-07-28 20:50:00,
2014-07-28 15:51:00,77.2,59.8,29.98,West,274,0.0,2.0,55,0.00,,---,0.00,VWS V14.01,2014-07-28 20:51:00,
2014-07-28 15:52:00,77.2,60.3,29.98,West,274,0.0,2.0,56,0.00,,---,0.00,VWS V14.01,2014-07-28 20:52:00,
2014-07-28 15:53:00,77.2,60.3,29.98,WNW,301,3.0,5.0,56,0.00,,---,0.00,VWS V14.01,2014-07-28 20:53:00,
2014-07-28 15:54:00,78.1,60.1,29.98,SSW,211,4.0,10.0,54,0.00,,---,0.00,VWS V14.01,2014-07-28 20:54:00,
2014-07-28 15:55:00,77.0,60.1,29.98,NNW,335,0.0,5.0,56,0.00,,---,0.00,VWS V14.01,2014-07-28 20:55:00,
2014-07-28 15:56:00,77.0,61.1,29.98,NW,308,0.0,0.0,58,0.00,,---,0.00,VWS V14.01,2014-07-28 20:56:00,
2014-07-28 15:57:00,77.0,61.1,29.98,West,264,5.0,5.0,58,0.00,,---,0.00,VWS V14.01,2014-07-28 20:57:00,
2014-07-28 15:58:00,77.0,60.6,29.98,North,0,3.0,5.0,57,0.00,,---,0.00,VWS V14.01,2014-07-28 20:58:00,
2014-07-28 15:59:00,77.4,60.0,29.98,WSW,248,3.0,7.0,55,0.00,,---,0.00,VWS V14.01,2014-07-28 20:59:00,
2014-07-28 16:00:00,77.0,60.1,29.98,NNW,346,5.0,6.0,56,0.00,,---,0.00,VWS V14.01,2014-07-28 21:00:00,
2014-07-28 16:01:00,77.2,61.3,29.98,SW,232,2.0,3.0,58,0.00,,---,0.00,VWS V14.01,2014-07-28 21:01:00,
2014-07-28 16:02:00,77.2,59.8,29.98,NNW,346,3.0,5.0,55,0.00,,---,0.00,VWS V14.01,2014-07-28 21:02:00,
2014-07-28 16:03:00,77.2,59.3,29.98,NNE,26,2.0,6.0,54,0.00,,---,0.00,VWS V14.01,2014-07-28 21:03:00,
2014-07-28 16:04:00,77.2,60.3,29.98,NW,314,2.0,6.0,56,0.00,,---,0.00,VWS V14.01,2014-07-28 21:04:00,
2014-07-28 16:05:00,77.2,60.3,29.98,NE,43,0.0,6.0,56,0.00,,---,0.00,VWS V14.01,2014-07-28 21:05:00,
2014-07-28 16:06:00,77.2,60.3,29.98,North,0,3.0,3.0,56,0.00,,---,0.00,VWS V14.01,2014-07-28 21:06:00,
2014-07-28 16:07:00,77.2,59.8,29.98,NNE,21,1.0,5.0,55,0.00,,---,0.00,VWS V14.01,2014-07-28 21:07:00,
2014-07-28 16:08:00,77.0,60.6,29.98,North,0,3.0,5.0,57,0.00,,---,0.00,VWS V14.01,2014-07-28 21:08:00,
2014-07-28 16:13:00,77.2,59.3,29.98,NNE,26,2.0,6.0,54,0.00,,---,0.00,VWS V14.01,2014-07-28 21:13:00,
2014-07-28 16:18:00,77.2,61.3,29.98,NNE,25,0.0,5.0,58,0.00,,---,0.00,VWS V14.01,2014-07-28 21:18:00,